Time,TemperatureF,DewpointF,PressureIn,WindDirection,WindDirectionDegrees,WindSpeedMPH,WindSpeedGustMPH,Humidity,HourlyPrecipIn,Conditions,Clouds,dailyrainin,SoftwareType,DateUTC
2013-11-02 00:00:00,77.0,73.8,29.85,South,191,0.0,12.0,90,0.00,,CLR,0.00,VWS V14.01,2013-11-02 04:00:00,
2013-11-02 00:09:00,77.0,73.8,29.85,South,178,3.0,9.0,90,0.00,,CLR,0.00,VWS V14.01,2013-11-02 04:09:00,
2013-11-02 00:14:00,77.0,73.8,29.85,South,184,2.0,10.0,90,0.00,,CLR,0.00,VWS V14.01,2013-11-02 04:14:00,
2013-11-02 00:19:00,77.0,73.8,29.85,SSW,195,0.0,10.0,90,0.00,,CLR,0.00,VWS V14.01,2013-11-02 04:19:00,
2013-11-02 00:24:00,77.0,73.8,29.85,South,178,2.0,10.0,90,0.00,,CLR,0.00,VWS V14.01,2013-11-02 04:24:00,
2013-11-02 00:29:00,77.0,73.8,29.84,South,178,0.0,10.0,90,0.00,,CLR,0.00,VWS V14.01,2013-11-02 04:29:00,
2013-11-02 00:30:00,77.0,73.8,29.84,SSE,165,4.0,10.0,90,0.00,,CLR,0.00,VWS V14.01,2013-11-02 04:30:00,
2013-11-02 00:34:00,77.0,73.8,29.84,South,172,0.0,9.0,90,0.00,,CLR,0.00,VWS V14.01,2013-11-02 04:34:00,
2013-11-02 00:39:00,76.8,73.7,29.84,South,172,5.0,9.0,90,0.00,,CLR,0.00,VWS V14.01,2013-11-02 04:39:00,
2013-11-02 00:44:00,76.8,74.0,29.83,South,178,4.0,9.0,91,0.00,,CLR,0.00,VWS V14.01,2013-11-02 04:44:00,
2013-11-02 00:49:00,76.8,73.7,29.83,South,175,0.0,10.0,90,0.00,,CLR,0.00,VWS V14.01,2013-11-02 04:49:00,
2013-11-02 00:54:00,76.8,73.7,29.83,SSE,164,10.0,10.0,90,0.00,,CLR,0.00,VWS V14.01,2013-11-02 04:54:00,
2013-11-02 00:59:00,76.8,73.7,29.81,SSE,165,0.0,10.0,90,0.00,,CLR,0.00,VWS V14.01,2013-11-02 04:59:00,
2013-11-02 01:00:00,76.8,73.7,29.81,South,178,7.0,10.0,90,0.00,,CLR,0.00,VWS V14.01,2013-11-02 05:00:00,
2013-11-02 01:04:00,76.8,73.7,29.81,South,188,3.0,7.0,90,0.00,,CLR,0.00,VWS V14.01,2013-11-02 05:04:00,
2013-11-02 01:09:00,76.8,73.7,29.81,South,171,0.0,8.0,90,0.00,,CLR,0.00,VWS V14.01,2013-11-02 05:09:00,
2013-11-02 01:14:00,76.8,73.7,29.80,SSW,196,3.0,9.0,90,0.00,,CLR,0.00,VWS V14.01,2013-11-02 05:14:00,
2013-11-02 01:19:00,76.8,73.7,29.80,South,186,0.0,10.0,90,0.00,,CLR,0.00,VWS V14.01,2013-11-02 05:19:00,
2013-11-02 01:24:00,76.8,73.7,29.80,SSW,192,3.0,10.0,90,0.00,,CLR,0.00,VWS V14.01,2013-11-02 05:24:00,
2013-11-02 01:29:00,77.0,73.5,29.80,SSE,151,0.0,11.0,89,0.00,,CLR,0.00,VWS V14.01,2013-11-02 05:29:00,
2013-11-02 01:30:00,77.0,73.5,29.80,SSE,158,0.0,11.0,89,0.00,,CLR,0.00,VWS V14.01,2013-11-02 05:30:00,
2013-11-02 01:34:00,77.0,73.5,29.80,South,188,0.0,11.0,89,0.00,,CLR,0.00,VWS V14.01,2013-11-02 05:34:00,
2013-11-02 01:39:00,77.0,73.5,29.80,South,188,5.0,11.0,89,0.00,,CLR,0.00,VWS V14.01,2013-11-02 05:39:00,
2013-11-02 01:44:00,77.0,73.8,29.80,SSE,161,3.0,11.0,90,0.00,,CLR,0.00,VWS V14.01,2013-11-02 05:44:00,
2013-11-02 01:49:00,77.0,73.8,29.80,South,189,0.0,13.0,90,0.00,,CLR,0.00,VWS V14.01,2013-11-02 05:49:00,
2013-11-02 01:54:00,77.0,73.8,29.80,South,169,5.0,13.0,90,0.00,,CLR,0.00,VWS V14.01,2013-11-02 05:54:00,
2013-11-02 02:00:00,77.0,73.8,29.81,South,174,3.0,13.0,90,0.00,,CLR,0.00,VWS V14.01,2013-11-02 06:00:00,
2013-11-02 02:05:00,77.0,73.8,29.81,South,175,0.0,8.0,90,0.00,,FEW080,0.00,VWS V14.01,2013-11-02 06:05:00,
2013-11-02 02:10:00,77.0,73.8,29.81,SSW,192,0.0,13.0,90,0.00,,FEW080,0.00,VWS V14.01,2013-11-02 06:10:00,
2013-11-02 02:15:00,77.0,73.8,29.79,South,186,6.0,13.0,90,0.00,,FEW080,0.00,VWS V14.01,2013-11-02 06:15:00,
2013-11-02 02:20:00,77.0,73.5,29.79,South,191,11.0,13.0,89,0.00,,FEW080,0.00,VWS V14.01,2013-11-02 06:20:00,
2013-11-02 02:25:00,77.0,73.5,29.79,South,178,3.0,13.0,89,0.00,,FEW080,0.00,VWS V14.01,2013-11-02 06:25:00,
2013-11-02 02:30:00,77.2,73.7,29.79,South,191,2.0,13.0,89,0.00,,FEW080,0.00,VWS V14.01,2013-11-02 06:30:00,
2013-11-02 02:35:00,77.2,73.7,29.79,SW,230,2.0,14.0,89,0.00,,FEW080,0.00,VWS V14.01,2013-11-02 06:35:00,
2013-11-02 02:40:00,77.0,73.5,29.79,South,175,0.0,14.0,89,0.00,,FEW080,0.00,VWS V14.01,2013-11-02 06:40:00,
2013-11-02 02:45:00,77.0,73.5,29.78,South,182,7.0,14.0,89,0.00,,FEW080,0.00,VWS V14.01,2013-11-02 06:45:00,
2013-11-02 02:50:00,77.2,73.7,29.78,SSW,195,1.0,14.0,89,0.00,,FEW080,0.00,VWS V14.01,2013-11-02 06:50:00,
2013-11-02 02:55:00,77.0,73.5,29.78,South,186,0.0,14.0,89,0.00,,FEW080,0.00,VWS V14.01,2013-11-02 06:55:00,
2013-11-02 03:00:00,77.0,73.5,29.78,SSW,200,7.0,14.0,89,0.00,,CLR,0.00,VWS V14.01,2013-11-02 07:00:00,
2013-11-02 03:05:00,77.0,73.8,29.78,SW,215,1.0,11.0,90,0.00,,CLR,0.00,VWS V14.01,2013-11-02 07:05:00,
2013-11-02 03:10:00,77.0,73.8,29.78,South,179,1.0,11.0,90,0.00,,CLR,0.00,VWS V14.01,2013-11-02 07:10:00,
2013-11-02 03:15:00,77.0,73.8,29.76,SSE,160,0.0,11.0,90,0.00,,CLR,0.00,VWS V14.01,2013-11-02 07:15:00,
2013-11-02 03:20:00,77.0,73.8,29.76,SSW,198,2.0,14.0,90,0.00,,CLR,0.00,VWS V14.01,2013-11-02 07:20:00,
2013-11-02 03:25:00,77.0,73.8,29.76,SSW,203,1.0,14.0,90,0.00,,CLR,0.00,VWS V14.01,2013-11-02 07:25:00,
2013-11-02 03:30:00,77.0,73.8,29.76,SSE,167,6.0,14.0,90,0.00,,CLR,0.00,VWS V14.01,2013-11-02 07:30:00,
2013-11-02 03:35:00,77.0,73.8,29.76,South,185,8.0,12.0,90,0.00,,CLR,0.00,VWS V14.01,2013-11-02 07:35:00,
2013-11-02 03:40:00,77.0,73.8,29.76,SSE,158,6.0,12.0,90,0.00,,CLR,0.00,VWS V14.01,2013-11-02 07:40:00,
2013-11-02 03:45:00,77.0,73.8,29.76,South,178,3.0,12.0,90,0.00,,CLR,0.00,VWS V14.01,2013-11-02 07:45:00,
2013-11-02 03:50:00,77.0,73.8,29.76,SSE,165,5.0,12.0,90,0.00,,CLR,0.00,VWS V14.01,2013-11-02 07:50:00,
2013-11-02 03:55:00,77.0,73.8,29.76,South,188,6.0,12.0,90,0.00,,CLR,0.00,VWS V14.01,2013-11-02 07:55:00,
2013-11-02 04:00:00,77.0,73.8,29.76,South,181,11.0,12.0,90,0.00,,CLR,0.00,VWS V14.01,2013-11-02 08:00:00,
2013-11-02 04:05:00,77.0,73.8,29.76,South,189,1.0,12.0,90,0.00,,CLR,0.00,VWS V14.01,2013-11-02 08:05:00,
2013-11-02 04:10:00,77.0,73.8,29.76,South,176,3.0,12.0,90,0.00,,CLR,0.00,VWS V14.01,2013-11-02 08:10:00,
2013-11-02 04:15:00,77.0,73.8,29.75,SSW,193,2.0,12.0,90,0.00,,CLR,0.00,VWS V14.01,2013-11-02 08:15:00,
2013-11-02 04:20:00,77.0,73.8,29.75,SSW,192,0.0,12.0,90,0.00,,CLR,0.00,VWS V14.01,2013-11-02 08:20:00,
2013-11-02 04:25:00,77.0,73.8,29.75,South,189,0.0,12.0,90,0.00,,CLR,0.00,VWS V14.01,2013-11-02 08:25:00,
2013-11-02 04:30:00,77.0,74.2,29.75,South,185,6.0,6.0,91,0.00,,CLR,0.00,VWS V14.01,2013-11-02 08:30:00,
2013-11-02 04:35:00,77.0,74.2,29.75,South,172,6.0,12.0,91,0.00,,CLR,0.00,VWS V14.01,2013-11-02 08:35:00,
2013-11-02 04:40:00,76.8,74.0,29.75,SSW,193,9.0,12.0,91,0.00,,CLR,0.00,VWS V14.01,2013-11-02 08:40:00,
2013-11-02 04:45:00,77.0,74.2,29.75,SSW,196,4.0,14.0,91,0.00,,CLR,0.00,VWS V14.01,2013-11-02 08:45:00,
2013-11-02 04:50:00,77.0,74.2,29.75,SSW,198,7.0,14.0,91,0.00,,CLR,0.00,VWS V14.01,2013-11-02 08:50:00,
2013-11-02 04:55:00,77.0,74.2,29.75,South,178,2.0,14.0,91,0.00,,CLR,0.00,VWS V14.01,2013-11-02 08:55:00,
2013-11-02 05:00:00,77.0,74.2,29.76,South,171,6.0,7.0,91,0.00,,CLR,0.00,VWS V14.01,2013-11-02 09:00:00,
2013-11-02 05:05:00,77.0,74.2,29.76,South,188,2.0,11.0,91,0.00,,CLR,0.00,VWS V14.01,2013-11-02 09:05:00,
2013-11-02 05:10:00,77.0,74.2,29.76,South,181,3.0,11.0,91,0.00,,CLR,0.00,VWS V14.01,2013-11-02 09:10:00,
2013-11-02 05:15:00,77.0,74.2,29.76,SSE,161,5.0,11.0,91,0.00,,CLR,0.00,VWS V14.01,2013-11-02 09:15:00,
2013-11-02 05:20:00,77.0,74.5,29.76,SSE,162,7.0,11.0,92,0.00,,CLR,0.00,VWS V14.01,2013-11-02 09:20:00,
2013-11-02 05:25:00,77.0,74.5,29.76,South,182,3.0,11.0,92,0.00,,CLR,0.00,VWS V14.01,2013-11-02 09:25:00,
2013-11-02 05:30:00,77.0,74.5,29.75,South,175,3.0,6.0,92,0.00,,CLR,0.00,VWS V14.01,2013-11-02 09:30:00,
2013-11-02 05:35:00,77.0,74.5,29.75,South,184,4.0,11.0,92,0.00,,CLR,0.00,VWS V14.01,2013-11-02 09:35:00,
2013-11-02 05:40:00,77.0,74.5,29.75,SSW,198,5.0,11.0,92,0.00,,CLR,0.00,VWS V14.01,2013-11-02 09:40:00,
2013-11-02 05:45:00,77.0,74.5,29.76,South,178,0.0,11.0,92,0.00,,CLR,0.00,VWS V14.01,2013-11-02 09:45:00,
2013-11-02 05:50:00,77.0,74.5,29.76,SSE,161,7.0,13.0,92,0.00,,CLR,0.00,VWS V14.01,2013-11-02 09:50:00,
2013-11-02 05:55:00,77.2,74.7,29.76,South,191,2.0,13.0,92,0.00,,CLR,0.00,VWS V14.01,2013-11-02 09:55:00,
2013-11-02 06:00:00,77.2,74.7,29.75,South,172,4.0,13.0,92,0.00,,CLR,0.00,VWS V14.01,2013-11-02 10:00:00,
2013-11-02 06:05:00,77.2,74.4,29.75,South,179,7.0,10.0,91,0.00,,CLR,0.00,VWS V14.01,2013-11-02 10:05:00,
2013-11-02 06:10:00,77.2,74.4,29.75,SSE,152,5.0,11.0,91,0.00,,CLR,0.00,VWS V14.01,2013-11-02 10:10:00,
2013-11-02 06:15:00,77.2,74.4,29.75,South,184,0.0,11.0,91,0.00,,CLR,0.00,VWS V14.01,2013-11-02 10:15:00,
2013-11-02 06:20:00,77.2,74.4,29.75,South,171,3.0,11.0,91,0.00,,CLR,0.00,VWS V14.01,2013-11-02 10:20:00,
2013-11-02 06:25:00,77.4,74.6,29.75,SSW,202,3.0,11.0,91,0.00,,CLR,0.00,VWS V14.01,2013-11-02 10:25:00,
2013-11-02 06:30:00,77.4,74.6,29.75,SSE,162,0.0,11.0,91,0.00,,CLR,0.00,VWS V14.01,2013-11-02 10:30:00,
2013-11-02 06:35:00,77.4,74.6,29.75,WSW,243,8.0,12.0,91,0.00,,CLR,0.00,VWS V14.01,2013-11-02 10:35:00,
2013-11-02 06:40:00,76.5,73.3,29.75,WSW,258,4.0,13.0,90,0.02,,CLR,0.02,VWS V14.01,2013-11-02 10:40:00,
2013-11-02 06:45:00,75.1,72.3,29.77,WNW,302,14.0,14.0,91,0.11,,CLR,0.11,VWS V14.01,2013-11-02 10:45:00,
2013-11-02 06:50:00,74.2,72.1,29.77,WSW,239,2.0,14.0,93,0.28,,CLR,0.28,VWS V14.01,2013-11-02 10:50:00,
2013-11-02 06:55:00,73.9,72.1,29.77,SW,227,3.0,14.0,94,0.31,,CLR,0.31,VWS V14.01,2013-11-02 10:55:00,
2013-11-02 07:00:00,73.7,71.9,29.77,SW,233,5.0,14.0,94,0.32,,OVC048,0.32,VWS V14.01,2013-11-02 11:00:00,
2013-11-02 07:05:00,73.9,72.4,29.77,SW,234,0.0,5.0,95,0.33,,OVC048,0.33,VWS V14.01,2013-11-02 11:05:00,
2013-11-02 07:10:00,73.9,72.4,29.77,SW,232,0.0,5.0,95,0.33,,OVC048,0.33,VWS V14.01,2013-11-02 11:10:00,
2013-11-02 07:15:00,73.5,72.0,29.77,SW,222,0.0,5.0,95,0.33,,OVC048,0.33,VWS V14.01,2013-11-02 11:15:00,
2013-11-02 07:20:00,73.5,72.0,29.77,SW,222,0.0,5.0,95,0.33,,OVC048,0.33,VWS V14.01,2013-11-02 11:20:00,
2013-11-02 07:25:00,73.7,72.5,29.77,SW,222,0.0,5.0,96,0.33,,OVC048,0.33,VWS V14.01,2013-11-02 11:25:00,
2013-11-02 07:30:00,74.0,72.8,29.77,SW,222,0.0,5.0,96,0.34,,OVC048,0.34,VWS V14.01,2013-11-02 11:30:00,
2013-11-02 07:35:00,74.2,73.0,29.77,WSW,254,0.0,0.0,96,0.34,,OVC048,0.34,VWS V14.01,2013-11-02 11:35:00,
2013-11-02 07:40:00,74.2,73.0,29.77,WNW,301,0.0,6.0,96,0.34,,OVC048,0.34,VWS V14.01,2013-11-02 11:40:00,
2013-11-02 07:45:00,73.9,72.7,29.77,WNW,294,1.0,7.0,96,0.34,,OVC048,0.34,VWS V14.01,2013-11-02 11:45:00,
2013-11-02 07:50:00,73.9,72.7,29.77,NW,305,0.0,7.0,96,0.34,,OVC048,0.34,VWS V14.01,2013-11-02 11:50:00,
2013-11-02 07:55:00,73.9,72.7,29.77,NW,304,0.0,7.0,96,0.34,,OVC048,0.34,VWS V14.01,2013-11-02 11:55:00,
2013-11-02 08:00:00,73.9,72.7,29.77,NW,325,1.0,8.0,96,0.34,,OVC048,0.34,VWS V14.01,2013-11-02 12:00:00,
2013-11-02 08:05:00,73.7,72.5,29.77,WNW,292,0.0,8.0,96,0.02,,-RA,0.34,VWS V14.01,2013-11-02 12:05:00,
2013-11-02 08:06:00,68.1,66.0,29.87,NW,304,0.0,13.0,93,0.00,,OVC038,0.05,VWS V14.01,2013-11-02 12:06:00,
2013-11-02 08:07:00,68.1,66.0,29.87,NW,306,0.0,13.0,93,0.00,,OVC038,0.05,VWS V14.01,2013-11-02 12:07:00,
2013-11-02 08:08:00,67.8,65.7,29.87,NNW,330,0.0,13.0,93,0.00,,OVC038,0.05,VWS V14.01,2013-11-02 12:08:00,
2013-11-02 08:09:00,67.6,65.5,29.87,NNW,330,0.0,13.0,93,0.00,,OVC038,0.05,VWS V14.01,2013-11-02 12:09:00,
2013-11-02 08:10:00,73.3,72.1,29.77,NNW,336,2.0,11.0,96,0.03,,-RA,0.35,VWS V14.01,2013-11-02 12:10:00,
2013-11-02 08:11:00,67.1,64.7,29.87,NW,322,0.0,13.0,92,0.00,,OVC038,0.08,VWS V14.01,2013-11-02 12:11:00,
2013-11-02 08:12:00,66.9,64.5,29.87,NW,320,0.0,13.0,92,0.00,,OVC038,0.08,VWS V14.01,2013-11-02 12:12:00,
2013-11-02 08:13:00,66.8,64.4,29.87,NW,320,0.0,13.0,92,0.00,,-RA,0.08,VWS V14.01,2013-11-02 12:13:00,
2013-11-02 08:14:00,66.6,64.2,29.87,NW,320,0.0,13.0,92,0.00,,-RA,0.08,VWS V14.01,2013-11-02 12:14:00,
2013-11-02 08:15:00,72.3,70.8,29.79,NNW,343,0.0,11.0,95,0.03,,-RA,0.35,VWS V14.01,2013-11-02 12:15:00,
2013-11-02 08:16:00,66.4,64.0,29.88,NW,320,0.0,13.0,92,0.00,,-RA,0.10,VWS V14.01,2013-11-02 12:16:00,
2013-11-02 08:17:00,66.3,63.9,29.88,NW,320,0.0,13.0,92,0.00,,-RA,0.10,VWS V14.01,2013-11-02 12:17:00,
2013-11-02 08:18:00,66.3,63.9,29.88,NW,320,0.0,13.0,92,0.00,,-RA,0.10,VWS V14.01,2013-11-02 12:18:00,
2013-11-02 08:19:00,66.3,63.9,29.88,NW,320,0.0,13.0,92,0.00,,-RA,0.10,VWS V14.01,2013-11-02 12:19:00,
2013-11-02 08:20:00,71.6,70.1,29.79,NW,305,0.0,17.0,95,0.03,,-RA,0.35,VWS V14.01,2013-11-02 12:20:00,
2013-11-02 08:21:00,66.1,63.7,29.88,NW,320,0.0,13.0,92,0.00,,-RA,0.10,VWS V14.01,2013-11-02 12:21:00,
2013-11-02 08:22:00,66.1,64.3,29.88,NW,320,0.0,13.0,94,0.00,,-RA,0.11,VWS V14.01,2013-11-02 12:22:00,
2013-11-02 08:23:00,66.3,64.5,29.88,NW,320,0.0,13.0,94,0.00,,-RA,0.11,VWS V14.01,2013-11-02 12:23:00,
2013-11-02 08:24:00,66.3,64.5,29.88,NW,319,0.0,13.0,94,0.00,,-RA,0.11,VWS V14.01,2013-11-02 12:24:00,
2013-11-02 08:25:00,71.3,69.8,29.79,NNW,336,0.0,17.0,95,0.03,,-RA,0.35,VWS V14.01,2013-11-02 12:25:00,
2013-11-02 08:26:00,66.4,64.9,29.88,NW,319,0.0,13.0,95,0.00,,-RA,0.11,VWS V14.01,2013-11-02 12:26:00,
2013-11-02 08:27:00,66.4,64.9,29.88,NW,319,0.0,13.0,95,0.00,,-RA,0.11,VWS V14.01,2013-11-02 12:27:00,
2013-11-02 08:28:00,66.6,65.1,29.88,NW,319,0.0,13.0,95,0.00,,-RA,0.11,VWS V14.01,2013-11-02 12:28:00,
2013-11-02 08:29:00,66.6,65.1,29.88,NW,319,0.0,13.0,95,0.00,,-RA,0.11,VWS V14.01,2013-11-02 12:29:00,
2013-11-02 08:30:00,70.3,68.8,29.79,North,359,2.0,17.0,95,0.03,,-RA,0.35,VWS V14.01,2013-11-02 12:30:00,
2013-11-02 08:31:00,66.8,65.3,29.87,NW,306,0.0,13.0,95,0.00,,-RA,0.11,VWS V14.01,2013-11-02 12:31:00,
2013-11-02 08:32:00,66.8,65.3,29.87,West,271,1.0,13.0,95,0.00,,-RA,0.11,VWS V14.01,2013-11-02 12:32:00,
2013-11-02 08:33:00,66.9,65.4,29.87,WNW,298,0.0,13.0,95,0.00,,-RA,0.11,VWS V14.01,2013-11-02 12:33:00,
2013-11-02 08:34:00,66.9,65.4,29.87,NNW,329,0.0,13.0,95,0.00,,-RA,0.11,VWS V14.01,2013-11-02 12:34:00,
2013-11-02 08:35:00,70.3,68.8,29.79,NNW,343,0.0,13.0,95,0.01,,-RA,0.35,VWS V14.01,2013-11-02 12:35:00,
2013-11-02 08:36:00,66.8,65.0,29.87,NW,308,0.0,13.0,94,0.00,,-RA,0.11,VWS V14.01,2013-11-02 12:36:00,
2013-11-02 08:37:00,66.6,64.8,29.87,NW,304,0.0,13.0,94,0.00,,-RA,0.12,VWS V14.01,2013-11-02 12:37:00,
2013-11-02 08:38:00,66.4,64.6,29.87,WNW,287,0.0,13.0,94,0.00,,-RA,0.12,VWS V14.01,2013-11-02 12:38:00,
2013-11-02 08:39:00,66.4,64.6,29.87,West,272,3.0,13.0,94,0.00,,-RA,0.12,VWS V14.01,2013-11-02 12:39:00,
2013-11-02 08:40:00,69.9,68.1,29.79,NW,323,4.0,13.0,94,0.01,,-RA,0.35,VWS V14.01,2013-11-02 12:40:00,
2013-11-02 08:41:00,65.0,63.2,29.87,NW,305,0.0,13.0,94,0.00,,-RA,0.16,VWS V14.01,2013-11-02 12:41:00,
2013-11-02 08:42:00,64.8,63.0,29.87,NW,320,0.0,13.0,94,0.00,,-RA,0.16,VWS V14.01,2013-11-02 12:42:00,
2013-11-02 08:43:00,64.0,62.2,29.87,West,272,0.0,13.0,94,0.00,,-RA,0.16,VWS V14.01,2013-11-02 12:43:00,
2013-11-02 08:44:00,64.0,62.2,29.87,West,275,0.0,13.0,94,0.00,,-RA,0.16,VWS V14.01,2013-11-02 12:44:00,
2013-11-02 08:45:00,69.6,67.8,29.81,WNW,299,7.0,13.0,94,0.01,,-RA,0.35,VWS V14.01,2013-11-02 12:45:00,
2013-11-02 08:46:00,63.2,61.5,29.87,West,277,0.0,13.0,94,0.00,,-RA,0.17,VWS V14.01,2013-11-02 12:46:00,
2013-11-02 08:47:00,62.6,59.0,29.87,West,277,0.0,13.0,88,0.00,,-RA,0.17,VWS V14.01,2013-11-02 12:47:00,
2013-11-02 08:48:00,62.6,59.0,29.87,West,277,0.0,13.0,88,0.00,,-RA,0.17,VWS V14.01,2013-11-02 12:48:00,
2013-11-02 08:49:00,62.1,59.1,29.87,WNW,296,0.0,13.0,90,0.00,,-RA,0.17,VWS V14.01,2013-11-02 12:49:00,
2013-11-02 08:50:00,69.9,68.1,29.81,North,357,0.0,13.0,94,0.01,,-RA,0.35,VWS V14.01,2013-11-02 12:50:00,
2013-11-02 08:51:00,62.0,59.0,29.87,WNW,296,0.0,13.0,90,0.00,,-RA,0.17,VWS V14.01,2013-11-02 12:51:00,
2013-11-02 08:52:00,62.0,59.3,29.87,WNW,296,0.0,13.0,91,0.00,,-RA,0.17,VWS V14.01,2013-11-02 12:52:00,
2013-11-02 08:53:00,62.0,59.3,29.87,WNW,296,0.0,13.0,91,0.00,,-RA,0.17,VWS V14.01,2013-11-02 12:53:00,
2013-11-02 08:54:00,62.0,59.7,29.87,WNW,296,0.0,13.0,92,0.00,,-RA,0.17,VWS V14.01,2013-11-02 12:54:00,
2013-11-02 08:55:00,70.1,68.6,29.81,NNW,339,0.0,13.0,95,0.01,,-RA,0.35,VWS V14.01,2013-11-02 12:55:00,
2013-11-02 08:56:00,62.0,59.7,29.87,WNW,296,0.0,13.0,92,0.00,,-RA,0.17,VWS V14.01,2013-11-02 12:56:00,
2013-11-02 08:57:00,62.1,60.1,29.87,WNW,296,0.0,13.0,93,0.00,,-RA,0.17,VWS V14.01,2013-11-02 12:57:00,
2013-11-02 08:58:00,62.1,60.1,29.87,WNW,298,0.0,13.0,93,0.00,,-RA,0.17,VWS V14.01,2013-11-02 12:58:00,
2013-11-02 08:59:00,62.1,60.1,29.87,WNW,298,0.0,13.0,93,0.00,,-RA,0.17,VWS V14.01,2013-11-02 12:59:00,
2013-11-02 09:00:00,70.4,68.9,29.80,NW,304,5.0,13.0,95,0.01,,-RA,0.35,VWS V14.01,2013-11-02 13:00:00,
2013-11-02 09:01:00,62.3,60.2,29.87,WNW,298,0.0,0.0,93,0.00,,-RA,0.17,VWS V14.01,2013-11-02 13:01:00,
2013-11-02 09:02:00,62.4,60.3,29.87,WNW,298,0.0,0.0,93,0.00,,-RA,0.17,VWS V14.01,2013-11-02 13:02:00,
2013-11-02 09:03:00,62.4,60.3,29.87,NW,312,0.0,0.0,93,0.00,,-RA,0.17,VWS V14.01,2013-11-02 13:03:00,
2013-11-02 09:04:00,62.4,60.3,29.87,WNW,298,0.0,0.0,93,0.00,,-RA,0.17,VWS V14.01,2013-11-02 13:04:00,
2013-11-02 09:05:00,70.8,69.3,29.80,NW,322,0.0,16.0,95,0.01,,OVC038,0.35,VWS V14.01,2013-11-02 13:05:00,
2013-11-02 09:06:00,62.6,60.5,29.87,NNW,330,0.0,0.0,93,0.00,,-RA,0.17,VWS V14.01,2013-11-02 13:06:00,
2013-11-02 09:07:00,62.6,60.5,29.87,NNW,330,0.0,0.0,93,0.00,,-RA,0.17,VWS V14.01,2013-11-02 13:07:00,
2013-11-02 09:08:00,62.6,60.5,29.87,NNW,330,0.0,0.0,93,0.00,,-RA,0.17,VWS V14.01,2013-11-02 13:08:00,
2013-11-02 09:09:00,62.4,60.0,29.87,NNW,332,0.0,0.0,92,0.00,,-RA,0.17,VWS V14.01,2013-11-02 13:09:00,
2013-11-02 09:10:00,70.4,68.6,29.80,NNW,340,1.0,16.0,94,0.02,,OVC038,0.36,VWS V14.01,2013-11-02 13:10:00,
2013-11-02 09:11:00,62.4,60.0,29.87,NNW,332,0.0,0.0,92,0.00,,-RA,0.17,VWS V14.01,2013-11-02 13:11:00,
2013-11-02 09:12:00,62.3,60.0,29.87,NNW,332,0.0,0.0,92,0.00,,-RA,0.17,VWS V14.01,2013-11-02 13:12:00,
2013-11-02 09:13:00,62.3,60.0,29.87,NNW,332,0.0,0.0,92,0.00,,-RA,0.17,VWS V14.01,2013-11-02 13:13:00,
2013-11-02 09:14:00,62.3,60.0,29.87,NNW,332,0.0,0.0,92,0.00,,-RA,0.17,VWS V14.01,2013-11-02 13:14:00,
2013-11-02 09:15:00,70.4,68.9,29.82,NNW,339,0.0,16.0,95,0.02,,OVC038,0.36,VWS V14.01,2013-11-02 13:15:00,
2013-11-02 09:16:00,62.3,60.0,29.87,NNW,332,0.0,0.0,92,0.00,,-RA,0.17,VWS V14.01,2013-11-02 13:16:00,
2013-11-02 09:17:00,62.3,60.0,29.87,NNW,332,0.0,0.0,92,0.00,,-RA,0.17,VWS V14.01,2013-11-02 13:17:00,
2013-11-02 09:18:00,62.1,59.8,29.87,NNW,332,0.0,0.0,92,0.00,,-RA,0.17,VWS V14.01,2013-11-02 13:18:00,
2013-11-02 09:19:00,62.1,59.5,29.87,NNW,332,0.0,0.0,91,0.00,,-RA,0.17,VWS V14.01,2013-11-02 13:19:00,
2013-11-02 09:20:00,70.4,68.9,29.82,NW,323,0.0,16.0,95,0.02,,OVC038,0.36,VWS V14.01,2013-11-02 13:20:00,
2013-11-02 09:21:00,62.0,59.3,29.87,NNW,332,0.0,0.0,91,0.00,,-RA,0.17,VWS V14.01,2013-11-02 13:21:00,
2013-11-02 09:22:00,62.1,59.5,29.87,NNW,332,0.0,0.0,91,0.00,,-RA,0.17,VWS V14.01,2013-11-02 13:22:00,
2013-11-02 09:23:00,62.1,59.5,29.87,NNW,332,0.0,0.0,91,0.00,,-RA,0.17,VWS V14.01,2013-11-02 13:23:00,
2013-11-02 09:24:00,62.1,59.5,29.87,NNW,332,0.0,0.0,91,0.00,,-RA,0.17,VWS V14.01,2013-11-02 13:24:00,
2013-11-02 09:25:00,70.3,68.8,29.82,North,0,0.0,16.0,95,0.02,,OVC038,0.36,VWS V14.01,2013-11-02 13:25:00,
2013-11-02 09:26:00,62.3,59.6,29.87,NNW,332,0.0,0.0,91,0.00,,-RA,0.17,VWS V14.01,2013-11-02 13:26:00,
2013-11-02 09:27:00,62.3,60.0,29.87,NNW,332,0.0,0.0,92,0.00,,-RA,0.17,VWS V14.01,2013-11-02 13:27:00,
2013-11-02 09:28:00,62.4,60.0,29.87,NNW,332,0.0,0.0,92,0.00,,-RA,0.17,VWS V14.01,2013-11-02 13:28:00,
2013-11-02 09:29:00,62.4,60.0,29.87,NNW,332,0.0,0.0,92,0.00,,-RA,0.17,VWS V14.01,2013-11-02 13:29:00,
2013-11-02 09:30:00,70.3,68.8,29.84,NNW,346,0.0,16.0,95,0.04,,OVC038,0.38,VWS V14.01,2013-11-02 13:30:00,
2013-11-02 09:31:00,62.6,60.2,29.87,NNW,332,0.0,0.0,92,0.00,,-RA,0.17,VWS V14.01,2013-11-02 13:31:00,
2013-11-02 09:32:00,62.6,60.2,29.87,NNW,332,0.0,0.0,92,0.00,,-RA,0.17,VWS V14.01,2013-11-02 13:32:00,
2013-11-02 09:33:00,62.6,60.2,29.87,NNW,332,0.0,0.0,92,0.00,,-RA,0.17,VWS V14.01,2013-11-02 13:33:00,
2013-11-02 09:34:00,70.3,68.5,29.84,NW,306,0.0,8.0,94,0.04,,OVC038,0.39,VWS V14.01,2013-11-02 13:34:00,
2013-11-02 09:35:00,62.7,60.3,29.87,NNW,332,0.0,0.0,92,0.00,,-RA,0.17,VWS V14.01,2013-11-02 13:35:00,
2013-11-02 09:36:00,62.9,60.5,29.87,NNW,332,0.0,0.0,92,0.00,,-RA,0.17,VWS V14.01,2013-11-02 13:36:00,
2013-11-02 09:37:00,63.1,60.7,29.87,NNW,332,0.0,0.0,92,0.00,,-RA,0.17,VWS V14.01,2013-11-02 13:37:00,
2013-11-02 09:38:00,63.1,60.7,29.87,NNW,332,0.0,0.0,92,0.00,,-RA,0.17,VWS V14.01,2013-11-02 13:38:00,
2013-11-02 09:39:00,69.8,68.0,29.84,NW,313,0.0,8.0,94,0.06,,OVC038,0.41,VWS V14.01,2013-11-02 13:39:00,
2013-11-02 09:40:00,63.1,60.7,29.87,NNW,332,0.0,0.0,92,0.00,,-RA,0.17,VWS V14.01,2013-11-02 13:40:00,
2013-11-02 09:41:00,63.2,60.8,29.87,NNW,332,0.0,0.0,92,0.00,,-RA,0.17,VWS V14.01,2013-11-02 13:41:00,
2013-11-02 09:42:00,63.4,61.0,29.87,NNW,332,0.0,0.0,92,0.00,,-RA,0.17,VWS V14.01,2013-11-02 13:42:00,
2013-11-02 09:43:00,63.4,61.0,29.87,NNW,332,0.0,0.0,92,0.00,,-RA,0.17,VWS V14.01,2013-11-02 13:43:00,
2013-11-02 09:44:00,69.6,67.5,29.86,WNW,298,0.0,12.0,93,0.09,,OVC038,0.44,VWS V14.01,2013-11-02 13:44:00,
2013-11-02 09:45:00,63.4,61.0,29.88,NNW,332,0.0,0.0,92,0.00,,-RA,0.17,VWS V14.01,2013-11-02 13:45:00,
2013-11-02 09:46:00,63.4,61.0,29.88,NNW,332,0.0,0.0,92,0.00,,-RA,0.17,VWS V14.01,2013-11-02 13:46:00,
2013-11-02 09:47:00,63.7,61.3,29.88,NNW,332,0.0,0.0,92,0.00,,-RA,0.17,VWS V14.01,2013-11-02 13:47:00,
2013-11-02 09:48:00,63.7,61.3,29.88,NNW,332,0.0,0.0,92,0.00,,-RA,0.17,VWS V14.01,2013-11-02 13:48:00,
2013-11-02 09:49:00,63.9,61.8,29.88,NNW,332,0.0,0.0,93,0.00,,-RA,0.17,VWS V14.01,2013-11-02 13:49:00,
2013-11-02 09:50:00,64.0,62.2,29.88,NNW,332,0.0,0.0,94,0.00,,-RA,0.17,VWS V14.01,2013-11-02 13:50:00,
2013-11-02 09:51:00,64.2,62.4,29.88,NNW,332,0.0,0.0,94,0.00,,-RA,0.17,VWS V14.01,2013-11-02 13:51:00,
2013-11-02 09:52:00,64.2,62.4,29.88,NNW,332,0.0,0.0,94,0.00,,-RA,0.17,VWS V14.01,2013-11-02 13:52:00,
2013-11-02 09:53:00,64.2,62.4,29.88,NNW,332,0.0,0.0,94,0.00,,-RA,0.17,VWS V14.01,2013-11-02 13:53:00,
2013-11-02 09:54:00,64.5,62.7,29.88,NNW,332,0.0,0.0,94,0.00,,-RA,0.17,VWS V14.01,2013-11-02 13:54:00,
2013-11-02 09:55:00,64.5,62.7,29.88,NNW,332,0.0,0.0,94,0.00,,-RA,0.17,VWS V14.01,2013-11-02 13:55:00,
2013-11-02 09:56:00,64.7,62.9,29.88,NNW,332,0.0,0.0,94,0.00,,-RA,0.17,VWS V14.01,2013-11-02 13:56:00,
2013-11-02 09:57:00,64.7,62.9,29.88,NNW,332,0.0,0.0,94,0.00,,-RA,0.17,VWS V14.01,2013-11-02 13:57:00,
2013-11-02 09:58:00,64.7,62.9,29.88,NNW,332,0.0,0.0,94,0.00,,-RA,0.17,VWS V14.01,2013-11-02 13:58:00,
2013-11-02 09:59:00,64.7,62.9,29.88,NNW,332,0.0,0.0,94,0.00,,-RA,0.17,VWS V14.01,2013-11-02 13:59:00,
2013-11-02 10:00:00,64.7,62.9,29.87,NNW,332,0.0,0.0,94,0.00,,-RA,0.17,VWS V14.01,2013-11-02 14:00:00,
2013-11-02 10:01:00,64.7,62.9,29.87,NNW,332,0.0,0.0,94,0.00,,-RA,0.17,VWS V14.01,2013-11-02 14:01:00,
2013-11-02 10:02:00,64.7,62.9,29.87,NNW,332,0.0,0.0,94,0.00,,-RA,0.17,VWS V14.01,2013-11-02 14:02:00,
2013-11-02 10:03:00,64.8,63.0,29.87,NNW,332,0.0,0.0,94,0.00,,-RA,0.17,VWS V14.01,2013-11-02 14:03:00,
2013-11-02 10:04:00,64.8,63.0,29.87,NNW,332,0.0,0.0,94,0.01,,-RA,0.18,VWS V14.01,2013-11-02 14:04:00,
2013-11-02 10:05:00,64.8,63.0,29.87,NNW,332,0.0,0.0,94,0.01,,-RA,0.18,VWS V14.01,2013-11-02 14:05:00,
2013-11-02 10:06:00,65.2,63.4,29.87,NNW,332,0.0,0.0,94,0.01,,-RA,0.18,VWS V14.01,2013-11-02 14:06:00,
2013-11-02 10:07:00,65.2,63.4,29.87,NNW,332,0.0,0.0,94,0.01,,-RA,0.18,VWS V14.01,2013-11-02 14:07:00,
2013-11-02 10:08:00,65.2,63.4,29.87,NNW,332,0.0,0.0,94,0.01,,-RA,0.18,VWS V14.01,2013-11-02 14:08:00,
2013-11-02 10:09:00,65.3,63.5,29.87,NNW,332,0.0,0.0,94,0.01,,-RA,0.18,VWS V14.01,2013-11-02 14:09:00,
2013-11-02 10:10:00,65.3,63.5,29.87,NNW,332,0.0,0.0,94,0.01,,-RA,0.18,VWS V14.01,2013-11-02 14:10:00,
2013-11-02 10:11:00,65.3,63.5,29.87,NNW,332,0.0,0.0,94,0.01,,-RA,0.18,VWS V14.01,2013-11-02 14:11:00,
2013-11-02 10:12:00,65.3,63.5,29.87,NNW,332,0.0,0.0,94,0.01,,-RA,0.18,VWS V14.01,2013-11-02 14:12:00,
2013-11-02 10:13:00,65.3,63.5,29.87,NNW,332,0.0,0.0,94,0.01,,-RA,0.18,VWS V14.01,2013-11-02 14:13:00,
2013-11-02 10:14:00,65.3,63.5,29.87,NNW,332,0.0,0.0,94,0.01,,-RA,0.18,VWS V14.01,2013-11-02 14:14:00,
2013-11-02 10:15:00,65.3,63.5,29.84,NNW,332,0.0,0.0,94,0.01,,-RA,0.18,VWS V14.01,2013-11-02 14:15:00,
2013-11-02 10:16:00,65.3,63.5,29.84,NNW,332,0.0,0.0,94,0.01,,-RA,0.18,VWS V14.01,2013-11-02 14:16:00,
2013-11-02 10:17:00,65.2,63.4,29.84,NNW,332,0.0,0.0,94,0.01,,-RA,0.18,VWS V14.01,2013-11-02 14:17:00,
2013-11-02 10:18:00,65.2,63.4,29.84,NNW,332,0.0,0.0,94,0.01,,-RA,0.18,VWS V14.01,2013-11-02 14:18:00,
2013-11-02 10:19:00,65.2,63.4,29.84,NNW,332,0.0,0.0,94,0.01,,-RA,0.18,VWS V14.01,2013-11-02 14:19:00,
2013-11-02 10:20:00,65.3,63.5,29.84,NNW,332,0.0,0.0,94,0.01,,-RA,0.18,VWS V14.01,2013-11-02 14:20:00,
2013-11-02 10:21:00,65.3,63.5,29.84,NNW,332,0.0,0.0,94,0.01,,-RA,0.18,VWS V14.01,2013-11-02 14:21:00,
2013-11-02 10:22:00,65.3,63.5,29.84,NNW,332,0.0,0.0,94,0.01,,-RA,0.18,VWS V14.01,2013-11-02 14:22:00,
2013-11-02 10:23:00,65.2,63.4,29.84,NNW,332,0.0,0.0,94,0.01,,-RA,0.18,VWS V14.01,2013-11-02 14:23:00,
2013-11-02 10:24:00,65.2,63.4,29.84,NNW,332,0.0,0.0,94,0.01,,-RA,0.18,VWS V14.01,2013-11-02 14:24:00,
2013-11-02 10:25:00,65.0,63.2,29.84,NNW,332,0.0,0.0,94,0.01,,-RA,0.18,VWS V14.01,2013-11-02 14:25:00,
2013-11-02 10:26:00,65.0,63.2,29.84,NNW,332,0.0,0.0,94,0.01,,-RA,0.18,VWS V14.01,2013-11-02 14:26:00,
2013-11-02 10:27:00,65.0,63.2,29.84,NNW,332,0.0,0.0,94,0.01,,-RA,0.18,VWS V14.01,2013-11-02 14:27:00,
2013-11-02 10:28:00,64.8,62.7,29.84,NNW,332,0.0,0.0,93,0.01,,-RA,0.18,VWS V14.01,2013-11-02 14:28:00,
2013-11-02 10:29:00,65.0,62.9,29.84,NNW,332,0.0,0.0,93,0.01,,-RA,0.18,VWS V14.01,2013-11-02 14:29:00,
2013-11-02 10:30:00,65.0,62.9,29.84,NNW,332,0.0,0.0,93,0.01,,-RA,0.18,VWS V14.01,2013-11-02 14:30:00,
2013-11-02 10:31:00,65.0,62.9,29.84,NNW,332,0.0,0.0,93,0.01,,-RA,0.18,VWS V14.01,2013-11-02 14:31:00,
2013-11-02 10:32:00,65.2,63.1,29.84,NNW,332,0.0,0.0,93,0.01,,-RA,0.18,VWS V14.01,2013-11-02 14:32:00,
2013-11-02 10:33:00,65.2,63.1,29.84,NNW,332,0.0,0.0,93,0.01,,-RA,0.18,VWS V14.01,2013-11-02 14:33:00,
2013-11-02 10:34:00,65.3,63.2,29.84,NNW,332,0.0,0.0,93,0.01,,-RA,0.18,VWS V14.01,2013-11-02 14:34:00,
2013-11-02 10:35:00,65.3,63.5,29.84,NNW,332,0.0,0.0,94,0.01,,-RA,0.18,VWS V14.01,2013-11-02 14:35:00,
2013-11-02 10:36:00,65.3,63.2,29.84,NNW,332,0.0,0.0,93,0.01,,-RA,0.18,VWS V14.01,2013-11-02 14:36:00,
2013-11-02 10:37:00,65.3,63.2,29.84,NNW,332,0.0,0.0,93,0.01,,-RA,0.18,VWS V14.01,2013-11-02 14:37:00,
2013-11-02 10:38:00,65.5,63.4,29.84,NNW,332,0.0,0.0,93,0.01,,-RA,0.18,VWS V14.01,2013-11-02 14:38:00,
2013-11-02 10:39:00,65.6,63.5,29.84,NNW,332,0.0,0.0,93,0.01,,-RA,0.18,VWS V14.01,2013-11-02 14:39:00,
2013-11-02 10:40:00,65.6,63.5,29.84,NNW,332,0.0,0.0,93,0.01,,-RA,0.18,VWS V14.01,2013-11-02 14:40:00,
2013-11-02 10:41:00,65.6,63.5,29.84,NNW,332,0.0,0.0,93,0.01,,-RA,0.18,VWS V14.01,2013-11-02 14:41:00,
2013-11-02 10:42:00,65.8,63.7,29.84,NNW,332,0.0,0.0,93,0.01,,-RA,0.18,VWS V14.01,2013-11-02 14:42:00,
2013-11-02 10:43:00,65.8,63.7,29.84,NNW,332,0.0,0.0,93,0.01,,-RA,0.18,VWS V14.01,2013-11-02 14:43:00,
2013-11-02 10:44:00,66.0,63.9,29.84,NNW,332,0.0,0.0,93,0.01,,-RA,0.18,VWS V14.01,2013-11-02 14:44:00,
2013-11-02 10:45:00,66.0,63.9,29.83,NNW,332,0.0,0.0,93,0.01,,-RA,0.18,VWS V14.01,2013-11-02 14:45:00,
2013-11-02 10:46:00,66.1,64.0,29.83,NNW,332,0.0,0.0,93,0.01,,-RA,0.18,VWS V14.01,2013-11-02 14:46:00,
2013-11-02 10:47:00,66.1,64.0,29.83,NNW,332,0.0,0.0,93,0.01,,-RA,0.18,VWS V14.01,2013-11-02 14:47:00,
2013-11-02 10:48:00,66.1,64.3,29.83,NNW,332,0.0,0.0,94,0.01,,-RA,0.18,VWS V14.01,2013-11-02 14:48:00,
2013-11-02 10:49:00,66.3,64.5,29.83,NNW,332,0.0,0.0,94,0.01,,-RA,0.18,VWS V14.01,2013-11-02 14:49:00,
2013-11-02 10:50:00,66.3,64.5,29.83,NNW,332,0.0,0.0,94,0.01,,-RA,0.18,VWS V14.01,2013-11-02 14:50:00,
2013-11-02 10:51:00,66.3,64.5,29.83,NNW,332,0.0,0.0,94,0.01,,-RA,0.18,VWS V14.01,2013-11-02 14:51:00,
2013-11-02 10:52:00,66.3,64.2,29.83,NNW,332,0.0,0.0,93,0.01,,-RA,0.18,VWS V14.01,2013-11-02 14:52:00,
2013-11-02 10:53:00,66.3,64.2,29.83,NNW,332,0.0,0.0,93,0.01,,-RA,0.18,VWS V14.01,2013-11-02 14:53:00,
2013-11-02 10:54:00,66.3,64.2,29.83,NNW,332,0.0,0.0,93,0.01,,-RA,0.18,VWS V14.01,2013-11-02 14:54:00,
2013-11-02 10:55:00,66.3,64.2,29.83,NNW,332,0.0,0.0,93,0.01,,-RA,0.18,VWS V14.01,2013-11-02 14:55:00,
2013-11-02 10:56:00,66.4,64.3,29.83,NNW,332,0.0,0.0,93,0.01,,-RA,0.18,VWS V14.01,2013-11-02 14:56:00,
2013-11-02 10:57:00,66.4,64.3,29.83,NNW,332,0.0,0.0,93,0.01,,-RA,0.18,VWS V14.01,2013-11-02 14:57:00,
2013-11-02 10:58:00,66.4,64.3,29.83,NNW,332,0.0,0.0,93,0.01,,-RA,0.18,VWS V14.01,2013-11-02 14:58:00,
2013-11-02 10:59:00,66.4,64.3,29.83,NNW,332,0.0,0.0,93,0.01,,-RA,0.18,VWS V14.01,2013-11-02 14:59:00,
2013-11-02 11:00:00,66.4,64.3,29.83,NNW,332,0.0,0.0,93,0.01,,-RA,0.18,VWS V14.01,2013-11-02 15:00:00,
2013-11-02 11:01:00,66.6,64.5,29.83,NNW,332,0.0,0.0,93,0.01,,-RA,0.18,VWS V14.01,2013-11-02 15:01:00,
2013-11-02 11:02:00,66.6,64.5,29.83,NNW,332,0.0,0.0,93,0.01,,-RA,0.18,VWS V14.01,2013-11-02 15:02:00,
2013-11-02 11:03:00,66.6,64.5,29.83,NNW,332,0.0,0.0,93,0.01,,-RA,0.18,VWS V14.01,2013-11-02 15:03:00,
2013-11-02 11:04:00,66.8,64.7,29.83,NNW,332,0.0,0.0,93,0.01,,-RA,0.18,VWS V14.01,2013-11-02 15:04:00,
2013-11-02 11:05:00,66.8,64.4,29.83,NNW,332,0.0,0.0,92,0.01,,-RA,0.18,VWS V14.01,2013-11-02 15:05:00,
2013-11-02 11:06:00,66.8,64.4,29.83,NNW,332,0.0,0.0,92,0.01,,-RA,0.18,VWS V14.01,2013-11-02 15:06:00,
2013-11-02 11:07:00,66.8,64.4,29.83,NNW,332,0.0,0.0,92,0.01,,-RA,0.18,VWS V14.01,2013-11-02 15:07:00,
2013-11-02 11:08:00,67.1,64.7,29.83,NNW,332,0.0,0.0,92,0.01,,-RA,0.18,VWS V14.01,2013-11-02 15:08:00,
2013-11-02 11:09:00,67.1,64.7,29.83,NNW,332,0.0,0.0,92,0.01,,-RA,0.18,VWS V14.01,2013-11-02 15:09:00,
2013-11-02 11:10:00,67.3,64.9,29.83,NNW,332,0.0,0.0,92,0.01,,-RA,0.18,VWS V14.01,2013-11-02 15:10:00,
2013-11-02 11:11:00,67.3,64.9,29.83,NNW,332,0.0,0.0,92,0.01,,-RA,0.18,VWS V14.01,2013-11-02 15:11:00,
2013-11-02 11:12:00,67.3,64.9,29.83,NNW,332,0.0,0.0,92,0.01,,OVC090,0.18,VWS V14.01,2013-11-02 15:12:00,
2013-11-02 11:13:00,67.3,64.9,29.83,NNW,332,0.0,0.0,92,0.01,,OVC090,0.18,VWS V14.01,2013-11-02 15:13:00,
2013-11-02 11:14:00,67.3,64.9,29.83,NNW,332,0.0,0.0,92,0.01,,OVC090,0.18,VWS V14.01,2013-11-02 15:14:00,
2013-11-02 11:15:00,67.4,65.0,29.82,NNW,332,0.0,0.0,92,0.01,,OVC090,0.18,VWS V14.01,2013-11-02 15:15:00,
2013-11-02 11:16:00,67.6,65.2,29.82,NNW,337,0.0,0.0,92,0.01,,OVC090,0.18,VWS V14.01,2013-11-02 15:16:00,
2013-11-02 11:17:00,67.6,65.2,29.82,NNW,337,0.0,0.0,92,0.01,,OVC090,0.18,VWS V14.01,2013-11-02 15:17:00,
2013-11-02 11:18:00,67.6,65.2,29.82,ENE,76,0.0,2.0,92,0.01,,OVC090,0.18,VWS V14.01,2013-11-02 15:18:00,
2013-11-02 11:19:00,67.6,65.2,29.82,ENE,76,0.0,2.0,92,0.01,,OVC090,0.18,VWS V14.01,2013-11-02 15:19:00,
2013-11-02 11:20:00,67.6,65.2,29.82,ENE,76,0.0,2.0,92,0.01,,OVC090,0.18,VWS V14.01,2013-11-02 15:20:00,
2013-11-02 11:21:00,67.6,65.2,29.82,ENE,76,0.0,2.0,92,0.01,,OVC090,0.18,VWS V14.01,2013-11-02 15:21:00,
2013-11-02 11:22:00,67.8,65.4,29.82,ENE,76,0.0,2.0,92,0.01,,OVC090,0.18,VWS V14.01,2013-11-02 15:22:00,
2013-11-02 11:23:00,67.8,65.4,29.82,ENE,76,0.0,2.0,92,0.01,,OVC090,0.18,VWS V14.01,2013-11-02 15:23:00,
2013-11-02 11:24:00,67.8,65.4,29.82,ENE,76,0.0,2.0,92,0.01,,OVC090,0.18,VWS V14.01,2013-11-02 15:24:00,
2013-11-02 11:25:00,67.6,64.9,29.82,ENE,76,0.0,2.0,91,0.01,,OVC090,0.18,VWS V14.01,2013-11-02 15:25:00,
2013-11-02 11:26:00,67.6,64.9,29.82,ENE,76,0.0,2.0,91,0.01,,OVC090,0.18,VWS V14.01,2013-11-02 15:26:00,
2013-11-02 11:27:00,67.6,64.9,29.82,ENE,76,0.0,2.0,91,0.01,,OVC090,0.18,VWS V14.01,2013-11-02 15:27:00,
2013-11-02 11:28:00,67.6,64.9,29.82,ENE,76,0.0,2.0,91,0.01,,OVC090,0.18,VWS V14.01,2013-11-02 15:28:00,
2013-11-02 11:29:00,67.4,64.7,29.82,ENE,76,0.0,2.0,91,0.01,,OVC090,0.18,VWS V14.01,2013-11-02 15:29:00,
2013-11-02 11:30:00,67.4,64.7,29.81,ENE,76,0.0,2.0,91,0.01,,OVC090,0.18,VWS V14.01,2013-11-02 15:30:00,
2013-11-02 11:31:00,67.3,64.3,29.81,ENE,76,0.0,0.0,90,0.00,,OVC090,0.18,VWS V14.01,2013-11-02 15:31:00,
2013-11-02 11:32:00,67.3,64.3,29.81,ENE,76,0.0,0.0,90,0.00,,OVC090,0.18,VWS V14.01,2013-11-02 15:32:00,
2013-11-02 11:33:00,67.3,64.3,29.81,ENE,76,0.0,0.0,90,0.00,,OVC090,0.18,VWS V14.01,2013-11-02 15:33:00,
2013-11-02 11:34:00,67.3,64.3,29.81,ENE,76,0.0,0.0,90,0.00,,OVC090,0.18,VWS V14.01,2013-11-02 15:34:00,
2013-11-02 11:35:00,67.3,64.3,29.81,ENE,76,0.0,0.0,90,0.00,,OVC090,0.18,VWS V14.01,2013-11-02 15:35:00,
2013-11-02 11:36:00,67.3,64.3,29.81,ENE,76,0.0,0.0,90,0.00,,OVC090,0.18,VWS V14.01,2013-11-02 15:36:00,
2013-11-02 11:37:00,67.3,64.3,29.81,ENE,76,0.0,0.0,90,0.00,,OVC090,0.18,VWS V14.01,2013-11-02 15:37:00,
2013-11-02 11:38:00,67.3,64.3,29.81,ENE,76,0.0,0.0,90,0.00,,OVC090,0.18,VWS V14.01,2013-11-02 15:38:00,
2013-11-02 11:39:00,67.3,64.3,29.81,ENE,76,0.0,0.0,90,0.00,,OVC090,0.18,VWS V14.01,2013-11-02 15:39:00,
2013-11-02 11:40:00,67.3,64.3,29.81,ENE,76,0.0,0.0,90,0.00,,OVC090,0.18,VWS V14.01,2013-11-02 15:40:00,
2013-11-02 11:41:00,67.3,64.3,29.81,ENE,76,0.0,0.0,90,0.00,,OVC090,0.18,VWS V14.01,2013-11-02 15:41:00,
2013-11-02 11:42:00,67.4,64.7,29.81,ENE,76,0.0,0.0,91,0.00,,OVC090,0.18,VWS V14.01,2013-11-02 15:42:00,
2013-11-02 11:43:00,67.4,64.4,29.81,ENE,76,0.0,0.0,90,0.00,,OVC090,0.18,VWS V14.01,2013-11-02 15:43:00,
2013-11-02 11:44:00,67.4,64.4,29.81,ENE,76,0.0,0.0,90,0.00,,OVC090,0.18,VWS V14.01,2013-11-02 15:44:00,
2013-11-02 11:45:00,67.4,64.4,29.83,ENE,76,0.0,0.0,90,0.00,,OVC090,0.18,VWS V14.01,2013-11-02 15:45:00,
2013-11-02 11:46:00,67.4,64.4,29.83,ENE,76,0.0,0.0,90,0.00,,OVC090,0.18,VWS V14.01,2013-11-02 15:46:00,
2013-11-02 11:47:00,67.4,64.4,29.83,ENE,76,0.0,0.0,90,0.00,,OVC090,0.18,VWS V14.01,2013-11-02 15:47:00,
2013-11-02 11:48:00,67.4,64.4,29.83,ENE,76,0.0,0.0,90,0.00,,OVC090,0.18,VWS V14.01,2013-11-02 15:48:00,
2013-11-02 11:49:00,67.6,64.6,29.83,ENE,76,0.0,0.0,90,0.00,,OVC090,0.18,VWS V14.01,2013-11-02 15:49:00,
2013-11-02 11:50:00,67.6,64.6,29.83,ENE,76,0.0,0.0,90,0.00,,OVC090,0.18,VWS V14.01,2013-11-02 15:50:00,
2013-11-02 11:51:00,67.6,64.6,29.83,ENE,76,0.0,0.0,90,0.00,,OVC090,0.18,VWS V14.01,2013-11-02 15:51:00,
2013-11-02 11:52:00,67.8,64.8,29.83,ENE,76,0.0,0.0,90,0.00,,OVC090,0.18,VWS V14.01,2013-11-02 15:52:00,
2013-11-02 11:53:00,67.9,64.9,29.83,ENE,76,0.0,0.0,90,0.00,,OVC090,0.18,VWS V14.01,2013-11-02 15:53:00,
2013-11-02 11:54:00,67.9,64.9,29.83,ENE,76,0.0,0.0,90,0.00,,OVC090,0.18,VWS V14.01,2013-11-02 15:54:00,
2013-11-02 11:55:00,67.9,64.9,29.83,ENE,76,0.0,0.0,90,0.00,,OVC090,0.18,VWS V14.01,2013-11-02 15:55:00,
2013-11-02 11:56:00,67.9,64.9,29.83,ENE,76,0.0,0.0,90,0.00,,OVC090,0.18,VWS V14.01,2013-11-02 15:56:00,
2013-11-02 11:57:00,67.9,64.9,29.83,ENE,76,0.0,0.0,90,0.00,,OVC090,0.18,VWS V14.01,2013-11-02 15:57:00,
2013-11-02 11:58:00,67.9,64.9,29.83,ENE,76,0.0,0.0,90,0.00,,OVC090,0.18,VWS V14.01,2013-11-02 15:58:00,
2013-11-02 11:59:00,68.1,64.7,29.83,ENE,76,0.0,0.0,89,0.00,,OVC090,0.18,VWS V14.01,2013-11-02 15:59:00,
2013-11-02 12:00:00,68.1,64.7,29.82,ENE,76,0.0,0.0,89,0.00,,OVC090,0.18,VWS V14.01,2013-11-02 16:00:00,
2013-11-02 12:01:00,68.1,64.7,29.82,ENE,76,0.0,0.0,89,0.00,,OVC090,0.18,VWS V14.01,2013-11-02 16:01:00,
2013-11-02 12:02:00,68.1,64.7,29.82,ENE,76,0.0,0.0,89,0.00,,OVC090,0.18,VWS V14.01,2013-11-02 16:02:00,
2013-11-02 12:03:00,68.1,64.7,29.82,ENE,76,0.0,0.0,89,0.00,,OVC090,0.18,VWS V14.01,2013-11-02 16:03:00,
2013-11-02 12:04:00,68.1,64.7,29.82,ENE,76,0.0,0.0,89,0.00,,OVC090,0.18,VWS V14.01,2013-11-02 16:04:00,
2013-11-02 12:05:00,68.1,64.7,29.82,ENE,76,0.0,0.0,89,0.00,,OVC090,0.18,VWS V14.01,2013-11-02 16:05:00,
2013-11-02 12:06:00,68.3,64.9,29.82,ENE,76,0.0,0.0,89,0.00,,OVC090,0.18,VWS V14.01,2013-11-02 16:06:00,
2013-11-02 12:07:00,68.3,64.9,29.82,ENE,76,0.0,0.0,89,0.00,,OVC090,0.18,VWS V14.01,2013-11-02 16:07:00,
2013-11-02 12:08:00,68.3,64.9,29.82,ENE,76,0.0,0.0,89,0.00,,OVC090,0.18,VWS V14.01,2013-11-02 16:08:00,
2013-11-02 12:09:00,68.3,64.9,29.82,ENE,76,0.0,0.0,89,0.00,,OVC090,0.18,VWS V14.01,2013-11-02 16:09:00,
2013-11-02 12:10:00,68.3,64.9,29.82,ENE,76,0.0,0.0,89,0.00,,OVC090,0.18,VWS V14.01,2013-11-02 16:10:00,
2013-11-02 12:11:00,68.3,64.9,29.82,ENE,76,0.0,0.0,89,0.00,,OVC090,0.18,VWS V14.01,2013-11-02 16:11:00,
2013-11-02 12:12:00,68.3,64.9,29.82,ENE,76,0.0,0.0,89,0.00,,OVC090,0.18,VWS V14.01,2013-11-02 16:12:00,
2013-11-02 12:13:00,68.3,64.9,29.82,ENE,76,0.0,0.0,89,0.00,,SCT075,0.18,VWS V14.01,2013-11-02 16:13:00,
2013-11-02 12:14:00,68.3,64.9,29.82,ENE,76,0.0,0.0,89,0.00,,SCT075,0.18,VWS V14.01,2013-11-02 16:14:00,
2013-11-02 12:15:00,68.4,65.0,29.82,ENE,76,0.0,0.0,89,0.00,,SCT075,0.18,VWS V14.01,2013-11-02 16:15:00,
2013-11-02 12:16:00,68.4,65.0,29.82,ENE,76,0.0,0.0,89,0.00,,SCT075,0.18,VWS V14.01,2013-11-02 16:16:00,
2013-11-02 12:17:00,68.4,65.0,29.82,ENE,76,0.0,0.0,89,0.00,,SCT075,0.18,VWS V14.01,2013-11-02 16:17:00,
2013-11-02 12:18:00,68.6,65.2,29.82,ENE,76,0.0,0.0,89,0.00,,SCT075,0.18,VWS V14.01,2013-11-02 16:18:00,
2013-11-02 12:19:00,68.6,65.2,29.82,ENE,76,0.0,0.0,89,0.00,,SCT075,0.18,VWS V14.01,2013-11-02 16:19:00,
2013-11-02 12:20:00,68.6,65.2,29.82,ENE,76,0.0,0.0,89,0.00,,SCT075,0.18,VWS V14.01,2013-11-02 16:20:00,
2013-11-02 12:21:00,68.6,65.2,29.82,ENE,76,0.0,0.0,89,0.00,,SCT075,0.18,VWS V14.01,2013-11-02 16:21:00,
2013-11-02 12:22:00,68.6,65.2,29.82,ENE,76,0.0,0.0,89,0.00,,SCT075,0.18,VWS V14.01,2013-11-02 16:22:00,
2013-11-02 12:23:00,68.6,65.2,29.82,ENE,76,0.0,0.0,89,0.00,,SCT075,0.18,VWS V14.01,2013-11-02 16:23:00,
2013-11-02 12:24:00,68.6,65.2,29.82,ENE,76,0.0,0.0,89,0.00,,SCT075,0.18,VWS V14.01,2013-11-02 16:24:00,
2013-11-02 12:25:00,68.8,65.4,29.82,ENE,76,0.0,0.0,89,0.00,,SCT075,0.18,VWS V14.01,2013-11-02 16:25:00,
2013-11-02 12:26:00,68.8,65.4,29.82,ENE,76,0.0,0.0,89,0.00,,SCT075,0.18,VWS V14.01,2013-11-02 16:26:00,
2013-11-02 12:27:00,68.8,65.4,29.82,ENE,76,0.0,0.0,89,0.00,,SCT075,0.18,VWS V14.01,2013-11-02 16:27:00,
2013-11-02 12:28:00,68.8,65.4,29.82,ENE,76,0.0,0.0,89,0.00,,SCT075,0.18,VWS V14.01,2013-11-02 16:28:00,
2013-11-02 12:29:00,68.8,65.4,29.82,ENE,76,0.0,0.0,89,0.00,,SCT075,0.18,VWS V14.01,2013-11-02 16:29:00,
2013-11-02 12:30:00,68.8,65.4,29.80,ENE,76,0.0,0.0,89,0.00,,SCT075,0.18,VWS V14.01,2013-11-02 16:30:00,
2013-11-02 12:31:00,68.9,65.5,29.80,ENE,76,0.0,0.0,89,0.00,,SCT075,0.18,VWS V14.01,2013-11-02 16:31:00,
2013-11-02 12:32:00,69.1,65.7,29.80,ENE,76,0.0,0.0,89,0.00,,SCT075,0.18,VWS V14.01,2013-11-02 16:32:00,
2013-11-02 12:33:00,69.1,65.7,29.80,ENE,76,0.0,0.0,89,0.00,,SCT075,0.18,VWS V14.01,2013-11-02 16:33:00,
2013-11-02 12:34:00,69.3,65.9,29.80,ENE,76,0.0,0.0,89,0.00,,SCT075,0.18,VWS V14.01,2013-11-02 16:34:00,
2013-11-02 12:35:00,69.3,65.9,29.80,ENE,76,0.0,0.0,89,0.00,,SCT075,0.18,VWS V14.01,2013-11-02 16:35:00,
2013-11-02 12:36:00,69.3,65.9,29.80,ENE,76,0.0,0.0,89,0.00,,SCT075,0.18,VWS V14.01,2013-11-02 16:36:00,
2013-11-02 12:37:00,69.4,66.0,29.80,ENE,76,0.0,0.0,89,0.00,,SCT075,0.18,VWS V14.01,2013-11-02 16:37:00,
2013-11-02 12:38:00,69.6,66.2,29.80,ENE,76,0.0,0.0,89,0.00,,SCT075,0.18,VWS V14.01,2013-11-02 16:38:00,
2013-11-02 12:39:00,69.6,66.2,29.80,ENE,76,0.0,0.0,89,0.00,,SCT075,0.18,VWS V14.01,2013-11-02 16:39:00,
2013-11-02 12:40:00,69.6,66.2,29.80,ENE,76,0.0,0.0,89,0.00,,SCT075,0.18,VWS V14.01,2013-11-02 16:40:00,
2013-11-02 12:41:00,69.6,66.2,29.80,ENE,76,0.0,0.0,89,0.00,,SCT075,0.18,VWS V14.01,2013-11-02 16:41:00,
2013-11-02 12:42:00,69.6,65.9,29.80,ENE,76,0.0,0.0,88,0.00,,SCT075,0.18,VWS V14.01,2013-11-02 16:42:00,
2013-11-02 12:43:00,69.6,65.9,29.80,ENE,76,0.0,0.0,88,0.00,,SCT075,0.18,VWS V14.01,2013-11-02 16:43:00,
2013-11-02 12:44:00,69.6,65.9,29.80,ENE,76,0.0,0.0,88,0.00,,SCT075,0.18,VWS V14.01,2013-11-02 16:44:00,
2013-11-02 12:45:00,69.6,65.9,29.79,ENE,76,0.0,0.0,88,0.00,,SCT075,0.18,VWS V14.01,2013-11-02 16:45:00,
2013-11-02 12:46:00,69.6,65.9,29.79,ENE,76,0.0,0.0,88,0.00,,SCT075,0.18,VWS V14.01,2013-11-02 16:46:00,
2013-11-02 12:47:00,69.6,65.9,29.79,ENE,76,0.0,0.0,88,0.00,,SCT075,0.18,VWS V14.01,2013-11-02 16:47:00,
2013-11-02 12:48:00,69.6,65.9,29.79,ENE,76,0.0,0.0,88,0.00,,SCT075,0.18,VWS V14.01,2013-11-02 16:48:00,
2013-11-02 12:49:00,69.6,65.9,29.79,ENE,76,0.0,0.0,88,0.00,,SCT075,0.18,VWS V14.01,2013-11-02 16:49:00,
2013-11-02 12:50:00,69.8,66.1,29.79,ENE,76,0.0,0.0,88,0.00,,SCT075,0.18,VWS V14.01,2013-11-02 16:50:00,
2013-11-02 12:51:00,69.8,66.1,29.79,ENE,76,0.0,0.0,88,0.00,,SCT075,0.18,VWS V14.01,2013-11-02 16:51:00,
2013-11-02 12:52:00,69.8,66.1,29.79,ENE,76,0.0,0.0,88,0.00,,SCT075,0.18,VWS V14.01,2013-11-02 16:52:00,
2013-11-02 12:53:00,69.8,66.1,29.79,ENE,76,0.0,0.0,88,0.00,,SCT075,0.18,VWS V14.01,2013-11-02 16:53:00,
2013-11-02 12:54:00,69.9,66.2,29.79,ENE,76,0.0,0.0,88,0.00,,SCT075,0.18,VWS V14.01,2013-11-02 16:54:00,
2013-11-02 12:55:00,69.9,66.2,29.79,ENE,76,0.0,0.0,88,0.00,,SCT075,0.18,VWS V14.01,2013-11-02 16:55:00,
2013-11-02 12:56:00,69.9,66.2,29.79,ENE,76,0.0,0.0,88,0.00,,SCT075,0.18,VWS V14.01,2013-11-02 16:56:00,
2013-11-02 12:57:00,69.9,66.2,29.79,ENE,76,0.0,0.0,88,0.00,,SCT075,0.18,VWS V14.01,2013-11-02 16:57:00,
2013-11-02 12:58:00,70.1,66.4,29.79,ENE,76,0.0,0.0,88,0.00,,SCT075,0.18,VWS V14.01,2013-11-02 16:58:00,
2013-11-02 12:59:00,70.1,66.4,29.79,ENE,76,0.0,0.0,88,0.00,,SCT075,0.18,VWS V14.01,2013-11-02 16:59:00,
2013-11-02 13:00:00,70.3,66.6,29.80,ENE,76,0.0,0.0,88,0.00,,SCT075,0.18,VWS V14.01,2013-11-02 17:00:00,
2013-11-02 13:01:00,70.3,66.6,29.80,ENE,76,0.0,0.0,88,0.00,,SCT075,0.18,VWS V14.01,2013-11-02 17:01:00,
2013-11-02 13:02:00,70.3,66.2,29.80,ENE,76,0.0,0.0,87,0.00,,SCT075,0.18,VWS V14.01,2013-11-02 17:02:00,
2013-11-02 13:03:00,70.3,66.2,29.80,ENE,76,0.0,0.0,87,0.00,,SCT075,0.18,VWS V14.01,2013-11-02 17:03:00,
2013-11-02 13:04:00,70.3,66.2,29.80,ENE,76,0.0,0.0,87,0.00,,SCT075,0.18,VWS V14.01,2013-11-02 17:04:00,
2013-11-02 13:05:00,70.4,66.3,29.80,ENE,76,0.0,0.0,87,0.00,,SCT075,0.18,VWS V14.01,2013-11-02 17:05:00,
2013-11-02 13:06:00,70.4,66.3,29.80,ENE,76,0.0,0.0,87,0.00,,SCT075,0.18,VWS V14.01,2013-11-02 17:06:00,
2013-11-02 13:07:00,70.4,66.3,29.80,ENE,76,0.0,0.0,87,0.00,,SCT075,0.18,VWS V14.01,2013-11-02 17:07:00,
2013-11-02 13:08:00,70.4,66.3,29.80,ENE,76,0.0,0.0,87,0.00,,SCT075,0.18,VWS V14.01,2013-11-02 17:08:00,
2013-11-02 13:09:00,70.4,66.3,29.80,ENE,76,0.0,0.0,87,0.00,,SCT075,0.18,VWS V14.01,2013-11-02 17:09:00,
2013-11-02 13:10:00,70.6,66.6,29.80,ENE,76,0.0,0.0,87,0.00,,SCT075,0.18,VWS V14.01,2013-11-02 17:10:00,
2013-11-02 13:11:00,70.6,66.6,29.80,ENE,76,0.0,0.0,87,0.00,,SCT075,0.18,VWS V14.01,2013-11-02 17:11:00,
2013-11-02 13:12:00,70.6,66.6,29.80,ENE,76,0.0,0.0,87,0.00,,BKN090,0.18,VWS V14.01,2013-11-02 17:12:00,
2013-11-02 13:13:00,70.6,66.6,29.80,ENE,76,0.0,0.0,87,0.00,,BKN090,0.18,VWS V14.01,2013-11-02 17:13:00,
2013-11-02 13:14:00,70.6,66.6,29.80,ENE,76,0.0,0.0,87,0.00,,BKN090,0.18,VWS V14.01,2013-11-02 17:14:00,
2013-11-02 13:15:00,70.8,66.7,29.81,ENE,76,0.0,0.0,87,0.00,,BKN090,0.18,VWS V14.01,2013-11-02 17:15:00,
2013-11-02 13:16:00,70.8,66.7,29.81,ENE,76,0.0,0.0,87,0.00,,BKN090,0.18,VWS V14.01,2013-11-02 17:16:00,
2013-11-02 13:17:00,70.9,66.8,29.81,ENE,76,0.0,0.0,87,0.00,,BKN090,0.18,VWS V14.01,2013-11-02 17:17:00,
2013-11-02 13:18:00,70.9,66.8,29.81,ENE,76,0.0,0.0,87,0.00,,BKN090,0.18,VWS V14.01,2013-11-02 17:18:00,
2013-11-02 13:19:00,70.9,66.8,29.81,ENE,76,0.0,0.0,87,0.00,,BKN090,0.18,VWS V14.01,2013-11-02 17:19:00,
2013-11-02 13:20:00,70.9,66.8,29.81,ENE,76,0.0,0.0,87,0.00,,BKN090,0.18,VWS V14.01,2013-11-02 17:20:00,
2013-11-02 13:21:00,71.3,67.2,29.81,ENE,73,0.0,0.0,87,0.00,,BKN090,0.18,VWS V14.01,2013-11-02 17:21:00,
2013-11-02 13:22:00,71.3,67.2,29.81,ENE,73,0.0,0.0,87,0.00,,BKN090,0.18,VWS V14.01,2013-11-02 17:22:00,
2013-11-02 13:23:00,71.5,67.4,29.81,North,10,0.0,0.0,87,0.00,,BKN090,0.18,VWS V14.01,2013-11-02 17:23:00,
2013-11-02 13:24:00,71.5,67.4,29.81,North,0,0.0,0.0,87,0.00,,BKN090,0.18,VWS V14.01,2013-11-02 17:24:00,
2013-11-02 13:25:00,71.5,67.4,29.81,NNW,343,0.0,0.0,87,0.00,,BKN090,0.18,VWS V14.01,2013-11-02 17:25:00,
2013-11-02 13:26:00,71.5,67.4,29.81,NW,322,4.0,5.0,87,0.00,,BKN090,0.18,VWS V14.01,2013-11-02 17:26:00,
2013-11-02 13:27:00,71.5,66.4,29.81,NNW,336,0.0,5.0,84,0.00,,BKN090,0.18,VWS V14.01,2013-11-02 17:27:00,
2013-11-02 13:28:00,71.6,66.5,29.81,NNW,339,0.0,5.0,84,0.00,,BKN090,0.18,VWS V14.01,2013-11-02 17:28:00,
2013-11-02 13:29:00,71.6,66.5,29.81,NNW,337,0.0,5.0,84,0.00,,BKN090,0.18,VWS V14.01,2013-11-02 17:29:00,
2013-11-02 13:30:00,71.6,66.5,29.80,NNW,337,0.0,5.0,84,0.00,,BKN090,0.18,VWS V14.01,2013-11-02 17:30:00,
2013-11-02 13:31:00,71.6,66.5,29.80,NNW,337,0.0,0.0,84,0.00,,BKN090,0.18,VWS V14.01,2013-11-02 17:31:00,
2013-11-02 13:32:00,71.6,66.5,29.80,NNW,337,0.0,0.0,84,0.00,,BKN090,0.18,VWS V14.01,2013-11-02 17:32:00,
2013-11-02 13:33:00,71.6,66.5,29.80,North,356,0.0,0.0,84,0.00,,BKN090,0.18,VWS V14.01,2013-11-02 17:33:00,
2013-11-02 13:34:00,71.8,66.7,29.80,North,356,0.0,0.0,84,0.00,,BKN090,0.18,VWS V14.01,2013-11-02 17:34:00,
2013-11-02 13:35:00,71.8,66.7,29.80,NNW,336,0.0,1.0,84,0.00,,BKN090,0.18,VWS V14.01,2013-11-02 17:35:00,
2013-11-02 13:36:00,71.8,66.7,29.80,NNW,336,0.0,1.0,84,0.00,,BKN090,0.18,VWS V14.01,2013-11-02 17:36:00,
2013-11-02 13:37:00,71.8,66.7,29.80,NNW,336,0.0,1.0,84,0.00,,BKN090,0.18,VWS V14.01,2013-11-02 17:37:00,
2013-11-02 13:38:00,71.8,66.7,29.80,NNW,336,0.0,1.0,84,0.00,,BKN090,0.18,VWS V14.01,2013-11-02 17:38:00,
2013-11-02 13:39:00,71.6,66.5,29.80,NNW,336,0.0,1.0,84,0.00,,BKN090,0.18,VWS V14.01,2013-11-02 17:39:00,
2013-11-02 13:40:00,71.6,66.5,29.80,NNW,337,0.0,3.0,84,0.00,,BKN090,0.18,VWS V14.01,2013-11-02 17:40:00,
2013-11-02 13:41:00,71.6,66.5,29.80,NNW,337,0.0,3.0,84,0.00,,BKN090,0.18,VWS V14.01,2013-11-02 17:41:00,
2013-11-02 13:42:00,71.6,66.5,29.80,NNW,335,0.0,3.0,84,0.00,,BKN090,0.18,VWS V14.01,2013-11-02 17:42:00,
2013-11-02 13:43:00,71.6,66.5,29.80,NNW,335,0.0,3.0,84,0.00,,BKN090,0.18,VWS V14.01,2013-11-02 17:43:00,
2013-11-02 13:44:00,71.6,66.5,29.80,NNW,335,0.0,3.0,84,0.00,,BKN090,0.18,VWS V14.01,2013-11-02 17:44:00,
2013-11-02 13:45:00,71.6,66.5,29.80,NNW,335,0.0,3.0,84,0.00,,BKN090,0.18,VWS V14.01,2013-11-02 17:45:00,
2013-11-02 13:46:00,71.6,66.5,29.80,NNW,330,0.0,3.0,84,0.00,,BKN090,0.18,VWS V14.01,2013-11-02 17:46:00,
2013-11-02 13:47:00,71.6,66.5,29.80,NNW,330,0.0,3.0,84,0.00,,BKN090,0.18,VWS V14.01,2013-11-02 17:47:00,
2013-11-02 13:48:00,71.6,66.5,29.80,NNW,330,0.0,3.0,84,0.00,,BKN090,0.18,VWS V14.01,2013-11-02 17:48:00,
2013-11-02 13:49:00,71.6,66.5,29.80,NW,323,0.0,3.0,84,0.00,,BKN090,0.18,VWS V14.01,2013-11-02 17:49:00,
2013-11-02 13:50:00,71.6,66.5,29.80,NW,323,0.0,3.0,84,0.00,,BKN090,0.18,VWS V14.01,2013-11-02 17:50:00,
2013-11-02 13:51:00,71.6,66.5,29.80,NW,323,0.0,3.0,84,0.00,,BKN090,0.18,VWS V14.01,2013-11-02 17:51:00,
2013-11-02 13:52:00,71.6,66.5,29.80,NNW,337,0.0,3.0,84,0.00,,BKN090,0.18,VWS V14.01,2013-11-02 17:52:00,
2013-11-02 13:53:00,71.6,66.5,29.80,NNW,337,0.0,3.0,84,0.00,,BKN090,0.18,VWS V14.01,2013-11-02 17:53:00,
2013-11-02 13:54:00,71.6,66.5,29.80,NNW,333,0.0,3.0,84,0.00,,BKN090,0.18,VWS V14.01,2013-11-02 17:54:00,
2013-11-02 13:55:00,71.6,66.5,29.80,NNW,333,0.0,3.0,84,0.00,,BKN090,0.18,VWS V14.01,2013-11-02 17:55:00,
2013-11-02 13:56:00,71.5,66.4,29.80,NW,325,0.0,3.0,84,0.00,,BKN090,0.18,VWS V14.01,2013-11-02 17:56:00,
2013-11-02 13:57:00,71.5,66.4,29.80,NW,325,0.0,3.0,84,0.00,,BKN090,0.18,VWS V14.01,2013-11-02 17:57:00,
2013-11-02 13:58:00,71.5,66.4,29.80,NW,322,0.0,3.0,84,0.00,,BKN090,0.18,VWS V14.01,2013-11-02 17:58:00,
2013-11-02 13:59:00,71.5,66.4,29.80,NW,322,0.0,3.0,84,0.00,,BKN090,0.18,VWS V14.01,2013-11-02 17:59:00,
2013-11-02 14:00:00,71.5,66.4,29.79,NW,322,0.0,3.0,84,0.00,,BKN090,0.18,VWS V14.01,2013-11-02 18:00:00,
2013-11-02 14:01:00,71.3,66.2,29.79,NNW,342,0.0,0.0,84,0.00,,BKN090,0.18,VWS V14.01,2013-11-02 18:01:00,
2013-11-02 14:02:00,71.3,66.2,29.79,NNW,340,0.0,0.0,84,0.00,,BKN090,0.18,VWS V14.01,2013-11-02 18:02:00,
2013-11-02 14:03:00,71.3,66.2,29.79,NNW,340,0.0,0.0,84,0.00,,BKN090,0.18,VWS V14.01,2013-11-02 18:03:00,
2013-11-02 14:04:00,71.3,66.2,29.79,NNW,340,0.0,0.0,84,0.00,,BKN090,0.18,VWS V14.01,2013-11-02 18:04:00,
2013-11-02 14:05:00,71.3,66.2,29.79,NNW,340,0.0,0.0,84,0.00,,BKN090,0.18,VWS V14.01,2013-11-02 18:05:00,
2013-11-02 14:06:00,71.3,66.2,29.79,NNW,340,0.0,0.0,84,0.00,,BKN090,0.18,VWS V14.01,2013-11-02 18:06:00,
2013-11-02 14:07:00,71.3,66.2,29.79,NNW,339,0.0,0.0,84,0.00,,BKN090,0.18,VWS V14.01,2013-11-02 18:07:00,
2013-11-02 14:08:00,71.3,66.2,29.79,NNW,340,0.0,0.0,84,0.00,,BKN090,0.18,VWS V14.01,2013-11-02 18:08:00,
2013-11-02 14:09:00,71.3,66.2,29.79,NNW,342,0.0,0.0,84,0.00,,BKN090,0.18,VWS V14.01,2013-11-02 18:09:00,
2013-11-02 14:10:00,71.3,66.2,29.79,NNW,342,0.0,0.0,84,0.00,,BKN090,0.18,VWS V14.01,2013-11-02 18:10:00,
2013-11-02 14:11:00,71.3,66.2,29.79,NNW,342,0.0,0.0,84,0.00,,BKN090,0.18,VWS V14.01,2013-11-02 18:11:00,
2013-11-02 14:12:00,71.3,66.2,29.79,NNW,342,0.0,0.0,84,0.00,,BKN090,0.18,VWS V14.01,2013-11-02 18:12:00,
2013-11-02 14:13:00,71.3,66.2,29.79,NNW,342,0.0,0.0,84,0.00,,OVC110,0.18,VWS V14.01,2013-11-02 18:13:00,
2013-11-02 14:14:00,71.3,66.2,29.79,NNW,342,0.0,0.0,84,0.00,,OVC110,0.18,VWS V14.01,2013-11-02 18:14:00,
2013-11-02 14:15:00,71.3,66.2,29.80,NNW,342,0.0,0.0,84,0.00,,OVC110,0.18,VWS V14.01,2013-11-02 18:15:00,
2013-11-02 14:16:00,71.3,64.8,29.80,NNW,339,0.0,0.0,80,0.00,,OVC110,0.18,VWS V14.01,2013-11-02 18:16:00,
2013-11-02 14:17:00,71.3,64.8,29.80,NNW,339,0.0,0.0,80,0.00,,OVC110,0.18,VWS V14.01,2013-11-02 18:17:00,
2013-11-02 14:18:00,71.3,64.8,29.80,NNW,339,0.0,0.0,80,0.00,,OVC110,0.18,VWS V14.01,2013-11-02 18:18:00,
2013-11-02 14:19:00,71.3,64.8,29.80,NNW,339,0.0,0.0,80,0.00,,OVC110,0.18,VWS V14.01,2013-11-02 18:19:00,
2013-11-02 14:20:00,71.3,64.8,29.80,NNW,337,0.0,0.0,80,0.00,,OVC110,0.18,VWS V14.01,2013-11-02 18:20:00,
2013-11-02 14:21:00,71.3,64.8,29.80,NNW,333,0.0,0.0,80,0.00,,OVC110,0.18,VWS V14.01,2013-11-02 18:21:00,
2013-11-02 14:22:00,71.3,64.1,29.80,NNW,333,0.0,0.0,78,0.00,,OVC110,0.18,VWS V14.01,2013-11-02 18:22:00,
2013-11-02 14:23:00,71.3,64.1,29.80,North,352,0.0,0.0,78,0.00,,OVC110,0.18,VWS V14.01,2013-11-02 18:23:00,
2013-11-02 14:24:00,71.3,64.1,29.80,North,352,0.0,0.0,78,0.00,,OVC110,0.18,VWS V14.01,2013-11-02 18:24:00,
2013-11-02 14:25:00,71.3,63.7,29.80,North,352,0.0,0.0,77,0.00,,OVC110,0.18,VWS V14.01,2013-11-02 18:25:00,
2013-11-02 14:26:00,71.3,63.7,29.80,NNW,347,0.0,0.0,77,0.00,,OVC110,0.18,VWS V14.01,2013-11-02 18:26:00,
2013-11-02 14:27:00,71.3,63.7,29.80,NNW,347,0.0,0.0,77,0.00,,OVC110,0.18,VWS V14.01,2013-11-02 18:27:00,
2013-11-02 14:28:00,71.3,63.3,29.80,NNW,340,0.0,0.0,76,0.00,,OVC110,0.18,VWS V14.01,2013-11-02 18:28:00,
2013-11-02 14:29:00,71.3,63.3,29.80,NNW,340,0.0,0.0,76,0.00,,OVC110,0.18,VWS V14.01,2013-11-02 18:29:00,
2013-11-02 14:30:00,71.3,63.3,29.81,NNW,339,0.0,0.0,76,0.00,,OVC110,0.18,VWS V14.01,2013-11-02 18:30:00,
2013-11-02 14:31:00,71.1,63.2,29.81,NNW,339,0.0,0.0,76,0.00,,OVC110,0.18,VWS V14.01,2013-11-02 18:31:00,
2013-11-02 14:32:00,71.1,62.4,29.81,NNW,339,0.0,0.0,74,0.00,,OVC110,0.18,VWS V14.01,2013-11-02 18:32:00,
2013-11-02 14:33:00,71.1,62.4,29.81,NNW,329,0.0,0.0,74,0.00,,OVC110,0.18,VWS V14.01,2013-11-02 18:33:00,
2013-11-02 14:34:00,71.1,62.4,29.81,NNW,329,0.0,0.0,74,0.00,,OVC110,0.18,VWS V14.01,2013-11-02 18:34:00,
2013-11-02 14:35:00,71.1,62.4,29.81,NNW,329,0.0,0.0,74,0.00,,OVC110,0.18,VWS V14.01,2013-11-02 18:35:00,
2013-11-02 14:36:00,71.1,61.6,29.81,NNW,328,0.0,0.0,72,0.00,,OVC110,0.18,VWS V14.01,2013-11-02 18:36:00,
2013-11-02 14:37:00,71.1,61.6,29.81,NNW,328,0.0,0.0,72,0.00,,OVC110,0.18,VWS V14.01,2013-11-02 18:37:00,
2013-11-02 14:38:00,70.9,61.4,29.81,NNW,328,0.0,0.0,72,0.00,,OVC110,0.18,VWS V14.01,2013-11-02 18:38:00,
2013-11-02 14:39:00,70.9,61.4,29.81,NW,325,0.0,0.0,72,0.00,,OVC110,0.18,VWS V14.01,2013-11-02 18:39:00,
2013-11-02 14:40:00,70.9,61.4,29.81,NW,325,0.0,0.0,72,0.00,,OVC110,0.18,VWS V14.01,2013-11-02 18:40:00,
2013-11-02 14:41:00,70.9,61.4,29.81,NW,325,0.0,0.0,72,0.00,,OVC110,0.18,VWS V14.01,2013-11-02 18:41:00,
2013-11-02 14:42:00,70.9,61.4,29.81,NW,325,0.0,0.0,72,0.00,,OVC110,0.18,VWS V14.01,2013-11-02 18:42:00,
2013-11-02 14:43:00,70.9,61.4,29.81,NW,325,0.0,0.0,72,0.00,,OVC110,0.18,VWS V14.01,2013-11-02 18:43:00,
2013-11-02 14:44:00,70.9,61.8,29.81,NW,325,0.0,0.0,73,0.00,,OVC110,0.18,VWS V14.01,2013-11-02 18:44:00,
2013-11-02 14:45:00,70.9,61.8,29.81,NW,325,0.0,0.0,73,0.00,,OVC110,0.18,VWS V14.01,2013-11-02 18:45:00,
2013-11-02 14:46:00,70.9,61.8,29.81,NW,325,0.0,0.0,73,0.00,,OVC110,0.18,VWS V14.01,2013-11-02 18:46:00,
2013-11-02 14:47:00,70.9,61.8,29.81,NW,325,0.0,0.0,73,0.00,,OVC110,0.18,VWS V14.01,2013-11-02 18:47:00,
2013-11-02 14:48:00,70.9,61.8,29.81,NW,325,0.0,0.0,73,0.00,,OVC110,0.18,VWS V14.01,2013-11-02 18:48:00,
2013-11-02 14:49:00,70.9,61.8,29.81,NW,325,0.0,0.0,73,0.00,,OVC110,0.18,VWS V14.01,2013-11-02 18:49:00,
2013-11-02 14:50:00,70.9,61.8,29.81,NW,325,0.0,0.0,73,0.00,,OVC110,0.18,VWS V14.01,2013-11-02 18:50:00,
2013-11-02 14:51:00,70.8,61.7,29.81,NW,325,0.0,0.0,73,0.00,,OVC110,0.18,VWS V14.01,2013-11-02 18:51:00,
2013-11-02 14:52:00,70.8,61.7,29.81,NW,325,0.0,0.0,73,0.00,,OVC110,0.18,VWS V14.01,2013-11-02 18:52:00,
2013-11-02 14:53:00,70.8,61.3,29.81,NW,320,0.0,0.0,72,0.00,,OVC110,0.18,VWS V14.01,2013-11-02 18:53:00,
2013-11-02 14:54:00,70.8,61.3,29.81,NW,320,0.0,0.0,72,0.00,,OVC110,0.18,VWS V14.01,2013-11-02 18:54:00,
2013-11-02 14:55:00,70.8,61.3,29.81,NW,316,0.0,1.0,72,0.00,,OVC110,0.18,VWS V14.01,2013-11-02 18:55:00,
2013-11-02 14:56:00,70.8,61.3,29.81,NW,316,0.0,1.0,72,0.00,,OVC110,0.18,VWS V14.01,2013-11-02 18:56:00,
2013-11-02 14:57:00,70.8,61.3,29.81,NW,316,0.0,1.0,72,0.00,,OVC110,0.18,VWS V14.01,2013-11-02 18:57:00,
2013-11-02 14:58:00,70.8,61.3,29.81,NW,316,0.0,1.0,72,0.00,,OVC110,0.18,VWS V14.01,2013-11-02 18:58:00,
2013-11-02 14:59:00,70.8,61.3,29.81,NW,316,0.0,1.0,72,0.00,,OVC110,0.18,VWS V14.01,2013-11-02 18:59:00,
2013-11-02 15:00:00,70.8,61.3,29.81,NW,316,0.0,1.0,72,0.00,,OVC110,0.18,VWS V14.01,2013-11-02 19:00:00,
2013-11-02 15:01:00,70.8,61.3,29.81,NW,316,0.0,0.0,72,0.00,,OVC110,0.18,VWS V14.01,2013-11-02 19:01:00,
2013-11-02 15:02:00,70.8,61.3,29.81,NW,316,0.0,0.0,72,0.00,,OVC110,0.18,VWS V14.01,2013-11-02 19:02:00,
2013-11-02 15:03:00,70.8,61.3,29.81,NW,316,0.0,0.0,72,0.00,,OVC110,0.18,VWS V14.01,2013-11-02 19:03:00,
2013-11-02 15:04:00,70.8,61.3,29.81,NW,316,0.0,0.0,72,0.00,,OVC110,0.18,VWS V14.01,2013-11-02 19:04:00,
2013-11-02 15:05:00,70.8,61.3,29.81,NW,316,0.0,0.0,72,0.00,,OVC110,0.18,VWS V14.01,2013-11-02 19:05:00,
2013-11-02 15:06:00,70.8,61.7,29.81,NW,316,0.0,0.0,73,0.00,,OVC110,0.18,VWS V14.01,2013-11-02 19:06:00,
2013-11-02 15:07:00,70.8,61.7,29.81,NW,318,0.0,0.0,73,0.00,,OVC110,0.18,VWS V14.01,2013-11-02 19:07:00,
2013-11-02 15:08:00,70.8,61.7,29.81,NW,318,0.0,0.0,73,0.00,,OVC110,0.18,VWS V14.01,2013-11-02 19:08:00,
2013-11-02 15:09:00,70.8,61.7,29.81,NW,316,0.0,0.0,73,0.00,,OVC110,0.18,VWS V14.01,2013-11-02 19:09:00,
2013-11-02 15:10:00,70.8,61.7,29.81,NW,316,0.0,0.0,73,0.00,,OVC110,0.18,VWS V14.01,2013-11-02 19:10:00,
2013-11-02 15:11:00,70.8,61.7,29.81,NW,316,0.0,0.0,73,0.00,,OVC110,0.18,VWS V14.01,2013-11-02 19:11:00,
2013-11-02 15:12:00,70.8,61.7,29.81,NW,316,0.0,0.0,73,0.00,,OVC110,0.18,VWS V14.01,2013-11-02 19:12:00,
2013-11-02 15:13:00,70.8,62.1,29.81,NW,316,0.0,0.0,74,0.00,,OVC110,0.18,VWS V14.01,2013-11-02 19:13:00,
2013-11-02 15:14:00,70.8,62.1,29.81,NW,316,0.0,0.0,74,0.00,,OVC110,0.18,VWS V14.01,2013-11-02 19:14:00,
2013-11-02 15:15:00,70.8,62.1,29.80,NW,316,0.0,0.0,74,0.00,,OVC110,0.18,VWS V14.01,2013-11-02 19:15:00,
2013-11-02 15:16:00,70.8,62.1,29.80,NW,316,0.0,0.0,74,0.00,,OVC110,0.18,VWS V14.01,2013-11-02 19:16:00,
2013-11-02 15:17:00,70.8,62.1,29.80,NW,316,0.0,0.0,74,0.00,,OVC110,0.18,VWS V14.01,2013-11-02 19:17:00,
2013-11-02 15:18:00,70.8,62.1,29.80,NW,316,0.0,0.0,74,0.00,,OVC110,0.18,VWS V14.01,2013-11-02 19:18:00,
2013-11-02 15:19:00,70.8,62.1,29.80,NNW,330,0.0,0.0,74,0.00,,OVC110,0.18,VWS V14.01,2013-11-02 19:19:00,
2013-11-02 15:20:00,70.8,62.1,29.80,NW,323,0.0,0.0,74,0.00,,OVC110,0.18,VWS V14.01,2013-11-02 19:20:00,
2013-11-02 15:21:00,70.8,62.1,29.80,NW,325,0.0,0.0,74,0.00,,OVC110,0.18,VWS V14.01,2013-11-02 19:21:00,
2013-11-02 15:22:00,70.8,62.1,29.80,NW,323,0.0,0.0,74,0.00,,OVC110,0.18,VWS V14.01,2013-11-02 19:22:00,
2013-11-02 15:23:00,70.8,62.1,29.80,NW,323,0.0,0.0,74,0.00,,OVC110,0.18,VWS V14.01,2013-11-02 19:23:00,
2013-11-02 15:24:00,70.8,61.7,29.80,NW,323,0.0,0.0,73,0.00,,OVC110,0.18,VWS V14.01,2013-11-02 19:24:00,
2013-11-02 15:25:00,70.8,61.7,29.80,NW,323,0.0,0.0,73,0.00,,OVC110,0.18,VWS V14.01,2013-11-02 19:25:00,
2013-11-02 15:26:00,70.8,61.7,29.80,NW,323,0.0,0.0,73,0.00,,OVC110,0.18,VWS V14.01,2013-11-02 19:26:00,
2013-11-02 15:27:00,70.8,61.7,29.80,NW,322,0.0,0.0,73,0.00,,OVC110,0.18,VWS V14.01,2013-11-02 19:27:00,
2013-11-02 15:28:00,70.8,61.7,29.80,NW,322,0.0,0.0,73,0.00,,OVC110,0.18,VWS V14.01,2013-11-02 19:28:00,
2013-11-02 15:29:00,70.8,61.7,29.80,NW,320,0.0,1.0,73,0.00,,OVC110,0.18,VWS V14.01,2013-11-02 19:29:00,
2013-11-02 15:30:00,70.8,61.7,29.81,NW,320,0.0,1.0,73,0.00,,OVC110,0.18,VWS V14.01,2013-11-02 19:30:00,
2013-11-02 15:31:00,70.8,62.1,29.81,NW,320,0.0,0.0,74,0.00,,OVC110,0.18,VWS V14.01,2013-11-02 19:31:00,
2013-11-02 15:32:00,70.8,62.1,29.81,NW,320,0.0,0.0,74,0.00,,OVC110,0.18,VWS V14.01,2013-11-02 19:32:00,
2013-11-02 15:33:00,70.8,61.7,29.81,NW,320,0.0,0.0,73,0.00,,OVC110,0.18,VWS V14.01,2013-11-02 19:33:00,
2013-11-02 15:34:00,70.8,61.7,29.81,NW,320,0.0,0.0,73,0.00,,OVC110,0.18,VWS V14.01,2013-11-02 19:34:00,
2013-11-02 15:35:00,70.8,61.7,29.81,NW,320,0.0,0.0,73,0.00,,OVC110,0.18,VWS V14.01,2013-11-02 19:35:00,
2013-11-02 15:36:00,70.8,61.7,29.81,NW,320,0.0,0.0,73,0.00,,OVC110,0.18,VWS V14.01,2013-11-02 19:36:00,
2013-11-02 15:37:00,70.8,61.7,29.81,NW,320,0.0,0.0,73,0.00,,OVC110,0.18,VWS V14.01,2013-11-02 19:37:00,
2013-11-02 15:38:00,70.8,62.1,29.81,NW,319,0.0,0.0,74,0.00,,OVC110,0.18,VWS V14.01,2013-11-02 19:38:00,
2013-11-02 15:39:00,70.8,62.1,29.81,NW,320,0.0,0.0,74,0.00,,OVC110,0.18,VWS V14.01,2013-11-02 19:39:00,
2013-11-02 15:40:00,70.8,62.1,29.81,NW,319,0.0,0.0,74,0.00,,OVC110,0.18,VWS V14.01,2013-11-02 19:40:00,
2013-11-02 15:41:00,70.8,62.1,29.81,NW,320,0.0,0.0,74,0.00,,OVC110,0.18,VWS V14.01,2013-11-02 19:41:00,
2013-11-02 15:42:00,70.8,62.1,29.81,NW,320,0.0,0.0,74,0.00,,OVC110,0.18,VWS V14.01,2013-11-02 19:42:00,
2013-11-02 15:43:00,70.8,62.1,29.81,NW,320,0.0,0.0,74,0.00,,OVC110,0.18,VWS V14.01,2013-11-02 19:43:00,
2013-11-02 15:44:00,70.8,62.1,29.81,NW,320,0.0,0.0,74,0.00,,OVC110,0.18,VWS V14.01,2013-11-02 19:44:00,
2013-11-02 15:45:00,70.8,62.1,29.82,NW,320,0.0,0.0,74,0.00,,OVC110,0.18,VWS V14.01,2013-11-02 19:45:00,
2013-11-02 15:46:00,70.8,62.1,29.82,NW,322,0.0,0.0,74,0.00,,OVC110,0.18,VWS V14.01,2013-11-02 19:46:00,
2013-11-02 15:47:00,70.8,62.1,29.82,NW,319,0.0,0.0,74,0.00,,OVC110,0.18,VWS V14.01,2013-11-02 19:47:00,
2013-11-02 15:48:00,70.8,62.5,29.82,NW,319,0.0,0.0,75,0.00,,OVC110,0.18,VWS V14.01,2013-11-02 19:48:00,
2013-11-02 15:49:00,70.6,62.3,29.82,NW,319,0.0,0.0,75,0.00,,OVC110,0.18,VWS V14.01,2013-11-02 19:49:00,
2013-11-02 15:50:00,70.6,62.3,29.82,NW,319,0.0,0.0,75,0.00,,OVC110,0.18,VWS V14.01,2013-11-02 19:50:00,
2013-11-02 15:51:00,70.6,62.7,29.82,NW,319,0.0,0.0,76,0.00,,OVC110,0.18,VWS V14.01,2013-11-02 19:51:00,
2013-11-02 15:52:00,70.6,62.7,29.82,NW,319,0.0,0.0,76,0.00,,OVC110,0.18,VWS V14.01,2013-11-02 19:52:00,
2013-11-02 15:53:00,70.6,62.7,29.82,NW,319,0.0,0.0,76,0.00,,OVC110,0.18,VWS V14.01,2013-11-02 19:53:00,
2013-11-02 15:54:00,70.6,62.7,29.82,NW,319,0.0,0.0,76,0.00,,OVC110,0.18,VWS V14.01,2013-11-02 19:54:00,
2013-11-02 15:55:00,70.6,62.7,29.82,NW,319,0.0,0.0,76,0.00,,OVC110,0.18,VWS V14.01,2013-11-02 19:55:00,
2013-11-02 15:56:00,70.6,62.7,29.82,NW,319,0.0,0.0,76,0.00,,OVC110,0.18,VWS V14.01,2013-11-02 19:56:00,
2013-11-02 15:57:00,70.6,62.7,29.82,NW,319,0.0,0.0,76,0.00,,OVC110,0.18,VWS V14.01,2013-11-02 19:57:00,
2013-11-02 15:58:00,70.6,63.0,29.82,NW,319,0.0,0.0,77,0.00,,OVC110,0.18,VWS V14.01,2013-11-02 19:58:00,
2013-11-02 15:59:00,70.6,63.0,29.82,NW,319,0.0,0.0,77,0.00,,OVC110,0.18,VWS V14.01,2013-11-02 19:59:00,
2013-11-02 16:00:00,70.6,63.0,29.83,NW,319,0.0,0.0,77,0.00,,OVC110,0.18,VWS V14.01,2013-11-02 20:00:00,
2013-11-02 16:01:00,70.6,63.0,29.83,NW,319,0.0,0.0,77,0.00,,OVC110,0.18,VWS V14.01,2013-11-02 20:01:00,
2013-11-02 16:02:00,70.6,63.0,29.83,NW,313,0.0,0.0,77,0.00,,OVC110,0.18,VWS V14.01,2013-11-02 20:02:00,
2013-11-02 16:03:00,70.4,62.8,29.83,NW,313,0.0,0.0,77,0.00,,OVC110,0.18,VWS V14.01,2013-11-02 20:03:00,
2013-11-02 16:04:00,70.4,62.8,29.83,NW,313,0.0,0.0,77,0.00,,OVC110,0.18,VWS V14.01,2013-11-02 20:04:00,
2013-11-02 16:05:00,70.4,62.8,29.83,NW,309,0.0,0.0,77,0.00,,OVC110,0.18,VWS V14.01,2013-11-02 20:05:00,
2013-11-02 16:06:00,70.4,62.8,29.83,NW,309,0.0,0.0,77,0.00,,OVC110,0.18,VWS V14.01,2013-11-02 20:06:00,
2013-11-02 16:07:00,70.3,62.8,29.83,NW,309,0.0,0.0,77,0.00,,OVC110,0.18,VWS V14.01,2013-11-02 20:07:00,
2013-11-02 16:08:00,70.3,62.8,29.83,NW,309,0.0,0.0,77,0.00,,OVC110,0.18,VWS V14.01,2013-11-02 20:08:00,
2013-11-02 16:09:00,70.3,62.8,29.83,NW,309,0.0,0.0,77,0.00,,OVC110,0.18,VWS V14.01,2013-11-02 20:09:00,
2013-11-02 16:10:00,70.3,62.8,29.83,NW,309,0.0,0.0,77,0.00,,OVC110,0.18,VWS V14.01,2013-11-02 20:10:00,
2013-11-02 16:11:00,70.3,62.8,29.83,NW,309,0.0,0.0,77,0.00,,OVC110,0.18,VWS V14.01,2013-11-02 20:11:00,
2013-11-02 16:12:00,70.3,63.1,29.83,NW,309,0.0,0.0,78,0.00,,OVC110,0.18,VWS V14.01,2013-11-02 20:12:00,
2013-11-02 16:13:00,70.3,63.1,29.83,NW,309,0.0,0.0,78,0.00,,OVC110,0.18,VWS V14.01,2013-11-02 20:13:00,
2013-11-02 16:14:00,70.3,63.1,29.83,NW,309,0.0,0.0,78,0.00,,OVC110,0.18,VWS V14.01,2013-11-02 20:14:00,
2013-11-02 16:15:00,70.3,63.1,29.83,NW,309,0.0,0.0,78,0.00,,OVC110,0.18,VWS V14.01,2013-11-02 20:15:00,
2013-11-02 16:16:00,70.3,63.1,29.83,NW,309,0.0,0.0,78,0.00,,OVC110,0.18,VWS V14.01,2013-11-02 20:16:00,
2013-11-02 16:17:00,70.3,63.1,29.83,NW,309,0.0,0.0,78,0.00,,OVC110,0.18,VWS V14.01,2013-11-02 20:17:00,
2013-11-02 16:18:00,70.3,63.1,29.83,NW,309,0.0,0.0,78,0.00,,OVC110,0.18,VWS V14.01,2013-11-02 20:18:00,
2013-11-02 16:19:00,70.3,63.1,29.83,NW,309,0.0,0.0,78,0.00,,OVC110,0.18,VWS V14.01,2013-11-02 20:19:00,
2013-11-02 16:20:00,70.3,63.1,29.83,NW,309,0.0,0.0,78,0.00,,OVC110,0.18,VWS V14.01,2013-11-02 20:20:00,
2013-11-02 16:21:00,70.3,63.1,29.83,NW,309,0.0,0.0,78,0.00,,OVC110,0.18,VWS V14.01,2013-11-02 20:21:00,
2013-11-02 16:22:00,70.3,63.1,29.83,NW,309,0.0,0.0,78,0.00,,OVC110,0.18,VWS V14.01,2013-11-02 20:22:00,
2013-11-02 16:23:00,70.3,63.1,29.83,NW,309,0.0,0.0,78,0.00,,OVC110,0.18,VWS V14.01,2013-11-02 20:23:00,
2013-11-02 16:24:00,70.3,63.1,29.83,NW,309,0.0,0.0,78,0.00,,OVC110,0.18,VWS V14.01,2013-11-02 20:24:00,
2013-11-02 16:25:00,70.3,63.1,29.83,NW,304,1.0,1.0,78,0.00,,OVC110,0.18,VWS V14.01,2013-11-02 20:25:00,
2013-11-02 16:26:00,70.3,63.1,29.83,WNW,301,0.0,1.0,78,0.00,,OVC110,0.18,VWS V14.01,2013-11-02 20:26:00,
2013-11-02 16:27:00,70.3,63.1,29.83,WNW,296,0.0,1.0,78,0.00,,OVC110,0.18,VWS V14.01,2013-11-02 20:27:00,
2013-11-02 16:28:00,70.3,63.1,29.83,WNW,299,0.0,1.0,78,0.00,,OVC110,0.18,VWS V14.01,2013-11-02 20:28:00,
2013-11-02 16:29:00,70.3,63.1,29.83,WNW,299,0.0,1.0,78,0.00,,OVC110,0.18,VWS V14.01,2013-11-02 20:29:00,
2013-11-02 16:30:00,70.3,63.1,29.84,WNW,299,0.0,1.0,78,0.00,,OVC110,0.18,VWS V14.01,2013-11-02 20:30:00,
2013-11-02 16:31:00,70.3,63.1,29.84,WNW,299,0.0,0.0,78,0.00,,OVC110,0.18,VWS V14.01,2013-11-02 20:31:00,
2013-11-02 16:32:00,70.3,63.1,29.84,WNW,299,0.0,0.0,78,0.00,,OVC110,0.18,VWS V14.01,2013-11-02 20:32:00,
2013-11-02 16:33:00,70.3,63.1,29.84,WNW,301,0.0,0.0,78,0.00,,OVC110,0.18,VWS V14.01,2013-11-02 20:33:00,
2013-11-02 16:34:00,70.4,61.7,29.84,WNW,301,0.0,0.0,74,0.00,,OVC110,0.18,VWS V14.01,2013-11-02 20:34:00,
2013-11-02 16:35:00,70.4,61.7,29.84,WNW,301,0.0,0.0,74,0.00,,OVC110,0.18,VWS V14.01,2013-11-02 20:35:00,
2013-11-02 16:36:00,70.4,61.7,29.84,WNW,301,0.0,0.0,74,0.00,,OVC110,0.18,VWS V14.01,2013-11-02 20:36:00,
2013-11-02 16:37:00,70.4,61.7,29.84,WNW,301,0.0,0.0,74,0.00,,OVC110,0.18,VWS V14.01,2013-11-02 20:37:00,
2013-11-02 16:38:00,70.6,61.9,29.84,WNW,284,0.0,0.0,74,0.00,,OVC110,0.18,VWS V14.01,2013-11-02 20:38:00,
2013-11-02 16:39:00,70.6,61.5,29.84,WNW,284,0.0,0.0,73,0.00,,OVC110,0.18,VWS V14.01,2013-11-02 20:39:00,
2013-11-02 16:40:00,70.6,61.5,29.84,WNW,288,0.0,0.0,73,0.00,,OVC110,0.18,VWS V14.01,2013-11-02 20:40:00,
2013-11-02 16:41:00,70.8,61.7,29.84,WNW,299,0.0,0.0,73,0.00,,OVC110,0.18,VWS V14.01,2013-11-02 20:41:00,
2013-11-02 16:42:00,70.8,61.3,29.84,WNW,299,0.0,0.0,72,0.00,,OVC110,0.18,VWS V14.01,2013-11-02 20:42:00,
2013-11-02 16:43:00,70.8,61.3,29.84,NW,309,0.0,5.0,72,0.00,,OVC110,0.18,VWS V14.01,2013-11-02 20:43:00,
2013-11-02 16:44:00,70.8,61.3,29.84,WNW,296,0.0,5.0,72,0.00,,OVC110,0.18,VWS V14.01,2013-11-02 20:44:00,
2013-11-02 16:45:00,70.9,61.4,29.85,WNW,287,0.0,5.0,72,0.00,,OVC110,0.18,VWS V14.01,2013-11-02 20:45:00,
2013-11-02 16:46:00,70.9,61.4,29.85,WNW,287,0.0,5.0,72,0.00,,OVC110,0.18,VWS V14.01,2013-11-02 20:46:00,
2013-11-02 16:47:00,70.9,61.4,29.85,WNW,299,0.0,5.0,72,0.00,,OVC110,0.18,VWS V14.01,2013-11-02 20:47:00,
2013-11-02 16:48:00,71.1,61.6,29.85,WNW,298,0.0,5.0,72,0.00,,OVC110,0.18,VWS V14.01,2013-11-02 20:48:00,
2013-11-02 16:49:00,71.1,61.6,29.85,West,265,3.0,5.0,72,0.00,,OVC110,0.18,VWS V14.01,2013-11-02 20:49:00,
2013-11-02 16:50:00,71.1,61.6,29.85,WNW,287,0.0,5.0,72,0.00,,OVC110,0.18,VWS V14.01,2013-11-02 20:50:00,
2013-11-02 16:51:00,71.3,61.8,29.85,WNW,288,0.0,5.0,72,0.00,,OVC110,0.18,VWS V14.01,2013-11-02 20:51:00,
2013-11-02 16:52:00,71.3,61.8,29.85,WNW,282,0.0,5.0,72,0.00,,OVC110,0.18,VWS V14.01,2013-11-02 20:52:00,
2013-11-02 16:53:00,71.3,61.8,29.85,NW,304,5.0,5.0,72,0.00,,OVC110,0.18,VWS V14.01,2013-11-02 20:53:00,
2013-11-02 16:54:00,71.3,61.8,29.85,WNW,291,1.0,5.0,72,0.00,,OVC110,0.18,VWS V14.01,2013-11-02 20:54:00,
2013-11-02 16:55:00,71.3,61.8,29.85,WNW,282,0.0,5.0,72,0.00,,OVC110,0.18,VWS V14.01,2013-11-02 20:55:00,
2013-11-02 16:56:00,71.3,61.8,29.85,WNW,288,0.0,5.0,72,0.00,,OVC110,0.18,VWS V14.01,2013-11-02 20:56:00,
2013-11-02 16:57:00,71.3,61.8,29.85,WNW,288,0.0,5.0,72,0.00,,OVC110,0.18,VWS V14.01,2013-11-02 20:57:00,
2013-11-02 16:58:00,71.3,61.8,29.85,WNW,298,2.0,5.0,72,0.00,,OVC110,0.18,VWS V14.01,2013-11-02 20:58:00,
2013-11-02 16:59:00,71.3,61.8,29.85,WNW,298,0.0,5.0,72,0.00,,OVC110,0.18,VWS V14.01,2013-11-02 20:59:00,
2013-11-02 17:00:00,71.3,61.8,29.86,NNW,328,0.0,5.0,72,0.00,,OVC110,0.18,VWS V14.01,2013-11-02 21:00:00,
2013-11-02 17:01:00,71.3,61.8,29.86,NNW,328,0.0,0.0,72,0.00,,OVC110,0.18,VWS V14.01,2013-11-02 21:01:00,
2013-11-02 17:02:00,71.3,61.8,29.86,NW,325,0.0,0.0,72,0.00,,OVC110,0.18,VWS V14.01,2013-11-02 21:02:00,
2013-11-02 17:03:00,71.3,61.8,29.86,NW,316,0.0,0.0,72,0.00,,OVC110,0.18,VWS V14.01,2013-11-02 21:03:00,
2013-11-02 17:04:00,71.3,61.8,29.86,NW,316,0.0,0.0,72,0.00,,OVC110,0.18,VWS V14.01,2013-11-02 21:04:00,
2013-11-02 17:05:00,71.1,61.6,29.86,NW,316,0.0,0.0,72,0.00,,OVC110,0.18,VWS V14.01,2013-11-02 21:05:00,
2013-11-02 17:06:00,71.1,61.6,29.86,NW,316,0.0,0.0,72,0.00,,OVC110,0.18,VWS V14.01,2013-11-02 21:06:00,
2013-11-02 17:07:00,71.1,61.6,29.86,NW,312,0.0,0.0,72,0.00,,OVC110,0.18,VWS V14.01,2013-11-02 21:07:00,
2013-11-02 17:08:00,71.1,62.0,29.86,NW,312,0.0,0.0,73,0.00,,OVC110,0.18,VWS V14.01,2013-11-02 21:08:00,
2013-11-02 17:09:00,71.1,62.0,29.86,NW,311,0.0,0.0,73,0.00,,OVC110,0.18,VWS V14.01,2013-11-02 21:09:00,
2013-11-02 17:10:00,71.1,62.0,29.86,NW,309,0.0,0.0,73,0.00,,OVC110,0.18,VWS V14.01,2013-11-02 21:10:00,
2013-11-02 17:11:00,71.1,62.0,29.86,NW,309,0.0,0.0,73,0.00,,OVC110,0.18,VWS V14.01,2013-11-02 21:11:00,
2013-11-02 17:12:00,71.1,62.0,29.86,NW,306,0.0,0.0,73,0.00,,-RA,0.18,VWS V14.01,2013-11-02 21:12:00,
2013-11-02 17:13:00,71.1,62.4,29.86,NW,306,0.0,0.0,74,0.00,,-RA,0.18,VWS V14.01,2013-11-02 21:13:00,
2013-11-02 17:14:00,71.1,62.4,29.86,NW,306,0.0,0.0,74,0.00,,-RA,0.18,VWS V14.01,2013-11-02 21:14:00,
2013-11-02 17:15:00,70.9,62.2,29.87,WNW,289,0.0,0.0,74,0.00,,-RA,0.18,VWS V14.01,2013-11-02 21:15:00,
2013-11-02 17:16:00,70.9,62.2,29.87,WNW,289,0.0,0.0,74,0.00,,-RA,0.18,VWS V14.01,2013-11-02 21:16:00,
2013-11-02 17:17:00,70.9,62.2,29.87,WNW,289,0.0,0.0,74,0.00,,-RA,0.18,VWS V14.01,2013-11-02 21:17:00,
2013-11-02 17:18:00,70.9,61.8,29.87,WNW,282,0.0,0.0,73,0.00,,-RA,0.18,VWS V14.01,2013-11-02 21:18:00,
2013-11-02 17:19:00,70.9,61.8,29.87,West,270,0.0,3.0,73,0.00,,-RA,0.18,VWS V14.01,2013-11-02 21:19:00,
2013-11-02 17:20:00,70.9,61.8,29.87,West,270,0.0,3.0,73,0.00,,-RA,0.18,VWS V14.01,2013-11-02 21:20:00,
2013-11-02 17:21:00,70.9,61.8,29.87,West,278,0.0,3.0,73,0.00,,-RA,0.18,VWS V14.01,2013-11-02 21:21:00,
2013-11-02 17:22:00,70.9,61.8,29.87,NW,313,0.0,3.0,73,0.00,,-RA,0.18,VWS V14.01,2013-11-02 21:22:00,
2013-11-02 17:23:00,70.9,61.8,29.87,NW,313,0.0,3.0,73,0.00,,-RA,0.18,VWS V14.01,2013-11-02 21:23:00,
2013-11-02 17:24:00,70.9,61.8,29.87,NW,325,0.0,3.0,73,0.00,,-RA,0.18,VWS V14.01,2013-11-02 21:24:00,
2013-11-02 17:25:00,70.9,61.8,29.87,NW,325,0.0,3.0,73,0.00,,-RA,0.18,VWS V14.01,2013-11-02 21:25:00,
2013-11-02 17:26:00,70.9,61.8,29.87,NW,325,0.0,3.0,73,0.00,,-RA,0.18,VWS V14.01,2013-11-02 21:26:00,
2013-11-02 17:27:00,70.9,61.8,29.87,NW,323,0.0,3.0,73,0.00,,-RA,0.18,VWS V14.01,2013-11-02 21:27:00,
2013-11-02 17:28:00,70.9,61.8,29.87,NW,323,0.0,3.0,73,0.00,,-RA,0.18,VWS V14.01,2013-11-02 21:28:00,
2013-11-02 17:29:00,70.9,62.6,29.87,NNW,329,0.0,3.0,75,0.00,,-RA,0.18,VWS V14.01,2013-11-02 21:29:00,
2013-11-02 17:30:00,70.9,62.6,29.87,NW,326,0.0,3.0,75,0.00,,-RA,0.18,VWS V14.01,2013-11-02 21:30:00,
2013-11-02 17:31:00,70.9,62.6,29.87,NNW,329,0.0,0.0,75,0.00,,-RA,0.18,VWS V14.01,2013-11-02 21:31:00,
2013-11-02 17:32:00,70.9,62.6,29.87,NNW,329,0.0,0.0,75,0.00,,-RA,0.18,VWS V14.01,2013-11-02 21:32:00,
2013-11-02 17:33:00,70.9,62.6,29.87,NNW,329,0.0,0.0,75,0.00,,-RA,0.18,VWS V14.01,2013-11-02 21:33:00,
2013-11-02 17:34:00,70.9,62.6,29.87,NW,320,0.0,0.0,75,0.00,,-RA,0.18,VWS V14.01,2013-11-02 21:34:00,
2013-11-02 17:35:00,70.9,62.6,29.87,NW,322,0.0,0.0,75,0.00,,-RA,0.18,VWS V14.01,2013-11-02 21:35:00,
2013-11-02 17:36:00,70.9,62.6,29.87,NW,322,0.0,0.0,75,0.00,,-RA,0.18,VWS V14.01,2013-11-02 21:36:00,
2013-11-02 17:37:00,70.9,62.6,29.87,North,7,2.0,2.0,75,0.00,,-RA,0.18,VWS V14.01,2013-11-02 21:37:00,
2013-11-02 17:38:00,70.8,62.1,29.87,North,0,0.0,2.0,74,0.00,,-RA,0.18,VWS V14.01,2013-11-02 21:38:00,
2013-11-02 17:39:00,70.8,62.1,29.87,North,0,0.0,2.0,74,0.00,,-RA,0.18,VWS V14.01,2013-11-02 21:39:00,
2013-11-02 17:40:00,70.8,62.1,29.87,North,0,0.0,2.0,74,0.00,,-RA,0.18,VWS V14.01,2013-11-02 21:40:00,
2013-11-02 17:41:00,70.8,62.1,29.87,NW,322,0.0,2.0,74,0.00,,-RA,0.18,VWS V14.01,2013-11-02 21:41:00,
2013-11-02 17:42:00,70.8,62.1,29.87,NW,322,0.0,2.0,74,0.00,,-RA,0.18,VWS V14.01,2013-11-02 21:42:00,
2013-11-02 17:43:00,70.8,62.1,29.87,NW,309,0.0,2.0,74,0.00,,-RA,0.18,VWS V14.01,2013-11-02 21:43:00,
2013-11-02 17:44:00,70.8,62.1,29.87,NNW,344,0.0,3.0,74,0.00,,-RA,0.18,VWS V14.01,2013-11-02 21:44:00,
2013-11-02 17:45:00,70.8,62.1,29.86,West,272,2.0,3.0,74,0.00,,-RA,0.18,VWS V14.01,2013-11-02 21:45:00,
2013-11-02 17:46:00,70.8,62.1,29.86,West,280,0.0,3.0,74,0.00,,-RA,0.18,VWS V14.01,2013-11-02 21:46:00,
2013-11-02 17:47:00,70.8,61.7,29.86,NNW,340,0.0,3.0,73,0.00,,-RA,0.18,VWS V14.01,2013-11-02 21:47:00,
2013-11-02 17:48:00,70.8,61.7,29.86,NNW,344,0.0,3.0,73,0.00,,-RA,0.18,VWS V14.01,2013-11-02 21:48:00,
2013-11-02 17:49:00,70.8,61.7,29.86,NW,325,0.0,3.0,73,0.00,,-RA,0.18,VWS V14.01,2013-11-02 21:49:00,
2013-11-02 17:50:00,70.8,61.7,29.86,NW,325,0.0,3.0,73,0.00,,-RA,0.18,VWS V14.01,2013-11-02 21:50:00,
2013-11-02 17:51:00,70.8,61.7,29.86,North,0,2.0,3.0,73,0.00,,-RA,0.18,VWS V14.01,2013-11-02 21:51:00,
2013-11-02 17:52:00,70.8,61.7,29.86,North,0,0.0,3.0,73,0.00,,-RA,0.18,VWS V14.01,2013-11-02 21:52:00,
2013-11-02 17:53:00,70.8,61.7,29.86,NW,305,0.0,3.0,73,0.00,,-RA,0.18,VWS V14.01,2013-11-02 21:53:00,
2013-11-02 17:54:00,70.8,61.7,29.86,NNW,337,0.0,3.0,73,0.00,,-RA,0.18,VWS V14.01,2013-11-02 21:54:00,
2013-11-02 17:55:00,70.8,61.7,29.86,North,357,0.0,3.0,73,0.00,,-RA,0.18,VWS V14.01,2013-11-02 21:55:00,
2013-11-02 17:56:00,70.8,62.1,29.86,North,356,0.0,3.0,74,0.00,,-RA,0.18,VWS V14.01,2013-11-02 21:56:00,
2013-11-02 17:57:00,70.8,62.1,29.86,North,353,0.0,3.0,74,0.00,,-RA,0.18,VWS V14.01,2013-11-02 21:57:00,
2013-11-02 17:58:00,70.8,62.1,29.86,NW,322,3.0,3.0,74,0.00,,-RA,0.18,VWS V14.01,2013-11-02 21:58:00,
2013-11-02 17:59:00,70.8,62.1,29.86,NNW,336,0.0,3.0,74,0.00,,-RA,0.18,VWS V14.01,2013-11-02 21:59:00,
2013-11-02 18:00:00,70.8,62.1,29.85,North,356,0.0,3.0,74,0.00,,-RA,0.18,VWS V14.01,2013-11-02 22:00:00,
2013-11-02 18:01:00,70.8,62.1,29.85,North,353,0.0,0.0,74,0.00,,-RA,0.18,VWS V14.01,2013-11-02 22:01:00,
2013-11-02 18:02:00,70.8,62.1,29.85,NNE,23,0.0,0.0,74,0.00,,-RA,0.18,VWS V14.01,2013-11-02 22:02:00,
2013-11-02 18:03:00,70.8,62.1,29.85,North,0,0.0,0.0,74,0.00,,-RA,0.18,VWS V14.01,2013-11-02 22:03:00,
2013-11-02 18:04:00,70.6,61.5,29.85,NW,322,1.0,7.0,73,0.00,,-RA,0.18,VWS V14.01,2013-11-02 22:04:00,
2013-11-02 18:05:00,70.6,61.5,29.85,NNW,343,0.0,7.0,73,0.00,,-RA,0.18,VWS V14.01,2013-11-02 22:05:00,
2013-11-02 18:06:00,70.6,61.9,29.85,NNW,337,0.0,7.0,74,0.00,,-RA,0.18,VWS V14.01,2013-11-02 22:06:00,
2013-11-02 18:07:00,70.6,61.9,29.85,NNW,342,5.0,7.0,74,0.00,,-RA,0.18,VWS V14.01,2013-11-02 22:07:00,
2013-11-02 18:08:00,70.6,61.9,29.85,NNW,339,0.0,7.0,74,0.00,,-RA,0.18,VWS V14.01,2013-11-02 22:08:00,
2013-11-02 18:09:00,70.6,61.9,29.85,NNW,347,7.0,7.0,74,0.00,,-RA,0.18,VWS V14.01,2013-11-02 22:09:00,
2013-11-02 18:10:00,70.6,61.9,29.85,NNW,346,0.0,7.0,74,0.00,,-RA,0.18,VWS V14.01,2013-11-02 22:10:00,
2013-11-02 18:11:00,70.6,61.9,29.85,NNW,346,0.0,7.0,74,0.00,,-RA,0.18,VWS V14.01,2013-11-02 22:11:00,
2013-11-02 18:12:00,70.6,61.9,29.85,North,0,0.0,7.0,74,0.00,,-RA,0.18,VWS V14.01,2013-11-02 22:12:00,
2013-11-02 18:13:00,70.6,61.5,29.85,North,350,0.0,7.0,73,0.00,,BKN120,0.18,VWS V14.01,2013-11-02 22:13:00,
2013-11-02 18:14:00,70.6,61.5,29.85,NNW,335,0.0,7.0,73,0.00,,BKN120,0.18,VWS V14.01,2013-11-02 22:14:00,
2013-11-02 18:15:00,70.6,61.5,29.85,North,0,0.0,7.0,73,0.00,,BKN120,0.18,VWS V14.01,2013-11-02 22:15:00,
2013-11-02 18:16:00,70.6,61.5,29.85,North,352,0.0,7.0,73,0.00,,BKN120,0.18,VWS V14.01,2013-11-02 22:16:00,
2013-11-02 18:17:00,70.4,61.3,29.85,North,349,2.0,7.0,73,0.00,,BKN120,0.18,VWS V14.01,2013-11-02 22:17:00,
2013-11-02 18:18:00,70.4,61.3,29.85,North,352,11.0,11.0,73,0.00,,BKN120,0.18,VWS V14.01,2013-11-02 22:18:00,
2013-11-02 18:19:00,70.4,61.3,29.85,North,350,0.0,11.0,73,0.00,,BKN120,0.18,VWS V14.01,2013-11-02 22:19:00,
2013-11-02 18:20:00,70.4,61.3,29.85,NNW,342,0.0,11.0,73,0.00,,BKN120,0.18,VWS V14.01,2013-11-02 22:20:00,
2013-11-02 18:21:00,70.4,61.3,29.85,NNW,343,0.0,11.0,73,0.00,,BKN120,0.18,VWS V14.01,2013-11-02 22:21:00,
2013-11-02 18:22:00,70.4,61.3,29.85,NNW,342,0.0,11.0,73,0.00,,BKN120,0.18,VWS V14.01,2013-11-02 22:22:00,
2013-11-02 18:23:00,70.4,61.3,29.85,NNW,329,0.0,11.0,73,0.00,,BKN120,0.18,VWS V14.01,2013-11-02 22:23:00,
2013-11-02 18:24:00,70.4,60.2,29.85,North,349,0.0,11.0,70,0.00,,BKN120,0.18,VWS V14.01,2013-11-02 22:24:00,
2013-11-02 18:25:00,70.4,60.2,29.85,NW,315,2.0,11.0,70,0.00,,BKN120,0.18,VWS V14.01,2013-11-02 22:25:00,
2013-11-02 18:26:00,70.4,60.2,29.85,NNW,346,0.0,11.0,70,0.00,,BKN120,0.18,VWS V14.01,2013-11-02 22:26:00,
2013-11-02 18:27:00,70.4,59.8,29.85,NW,309,0.0,11.0,69,0.00,,BKN120,0.18,VWS V14.01,2013-11-02 22:27:00,
2013-11-02 18:28:00,70.4,59.8,29.85,NW,311,0.0,11.0,69,0.00,,BKN120,0.18,VWS V14.01,2013-11-02 22:28:00,
2013-11-02 18:29:00,70.4,59.8,29.85,NW,326,0.0,11.0,69,0.00,,BKN120,0.18,VWS V14.01,2013-11-02 22:29:00,
2013-11-02 18:30:00,70.4,59.8,29.85,NNW,335,10.0,11.0,69,0.00,,BKN120,0.18,VWS V14.01,2013-11-02 22:30:00,
2013-11-02 18:31:00,70.4,59.8,29.85,NW,322,6.0,10.0,69,0.00,,BKN120,0.18,VWS V14.01,2013-11-02 22:31:00,
2013-11-02 18:32:00,70.4,59.8,29.85,NNW,335,1.0,10.0,69,0.00,,BKN120,0.18,VWS V14.01,2013-11-02 22:32:00,
2013-11-02 18:33:00,70.4,59.8,29.85,NNW,335,0.0,10.0,69,0.00,,BKN120,0.18,VWS V14.01,2013-11-02 22:33:00,
2013-11-02 18:34:00,70.4,59.8,29.85,North,0,0.0,10.0,69,0.00,,BKN120,0.18,VWS V14.01,2013-11-02 22:34:00,
2013-11-02 18:35:00,70.4,59.8,29.85,NW,319,3.0,10.0,69,0.00,,BKN120,0.18,VWS V14.01,2013-11-02 22:35:00,
2013-11-02 18:36:00,70.4,59.8,29.85,NW,319,0.0,10.0,69,0.00,,BKN120,0.18,VWS V14.01,2013-11-02 22:36:00,
2013-11-02 18:37:00,70.4,59.8,29.85,NNW,335,0.0,10.0,69,0.00,,BKN120,0.18,VWS V14.01,2013-11-02 22:37:00,
2013-11-02 18:38:00,70.4,59.8,29.85,NNW,344,0.0,10.0,69,0.00,,BKN120,0.18,VWS V14.01,2013-11-02 22:38:00,
2013-11-02 18:39:00,70.4,59.8,29.85,North,0,0.0,10.0,69,0.00,,BKN120,0.18,VWS V14.01,2013-11-02 22:39:00,
2013-11-02 18:40:00,70.4,59.8,29.85,North,0,0.0,10.0,69,0.00,,BKN120,0.18,VWS V14.01,2013-11-02 22:40:00,
2013-11-02 18:41:00,70.4,59.8,29.85,NNW,337,0.0,10.0,69,0.00,,BKN120,0.18,VWS V14.01,2013-11-02 22:41:00,
2013-11-02 18:42:00,70.4,59.8,29.85,North,0,0.0,10.0,69,0.00,,BKN120,0.18,VWS V14.01,2013-11-02 22:42:00,
2013-11-02 18:43:00,70.4,59.8,29.85,NNW,337,0.0,10.0,69,0.00,,BKN120,0.18,VWS V14.01,2013-11-02 22:43:00,
2013-11-02 18:44:00,70.4,59.8,29.85,NW,320,0.0,10.0,69,0.00,,BKN120,0.18,VWS V14.01,2013-11-02 22:44:00,
2013-11-02 18:45:00,70.4,59.8,29.86,NNW,347,0.0,10.0,69,0.00,,BKN120,0.18,VWS V14.01,2013-11-02 22:45:00,
2013-11-02 18:46:00,70.6,60.0,29.86,WNW,301,3.0,10.0,69,0.00,,BKN120,0.18,VWS V14.01,2013-11-02 22:46:00,
2013-11-02 18:47:00,70.6,60.0,29.86,NNW,330,7.0,10.0,69,0.00,,BKN120,0.18,VWS V14.01,2013-11-02 22:47:00,
2013-11-02 18:48:00,70.6,59.5,29.86,NNW,340,0.0,10.0,68,0.00,,BKN120,0.18,VWS V14.01,2013-11-02 22:48:00,
2013-11-02 18:49:00,70.6,59.5,29.86,NNW,337,0.0,10.0,68,0.00,,BKN120,0.18,VWS V14.01,2013-11-02 22:49:00,
2013-11-02 18:50:00,70.6,59.5,29.86,North,0,0.0,10.0,68,0.00,,BKN120,0.18,VWS V14.01,2013-11-02 22:50:00,
2013-11-02 18:51:00,70.6,59.5,29.86,North,0,0.0,10.0,68,0.00,,BKN120,0.18,VWS V14.01,2013-11-02 22:51:00,
2013-11-02 18:52:00,70.6,59.5,29.86,NNW,336,0.0,10.0,68,0.00,,BKN120,0.18,VWS V14.01,2013-11-02 22:52:00,
2013-11-02 18:53:00,70.6,59.5,29.86,North,356,0.0,10.0,68,0.00,,BKN120,0.18,VWS V14.01,2013-11-02 22:53:00,
2013-11-02 18:54:00,70.6,59.5,29.86,NNW,335,2.0,10.0,68,0.00,,BKN120,0.18,VWS V14.01,2013-11-02 22:54:00,
2013-11-02 18:55:00,70.6,59.5,29.86,NNW,347,0.0,10.0,68,0.00,,BKN120,0.18,VWS V14.01,2013-11-02 22:55:00,
2013-11-02 18:56:00,70.6,59.5,29.86,North,350,0.0,10.0,68,0.00,,BKN120,0.18,VWS V14.01,2013-11-02 22:56:00,
2013-11-02 18:57:00,70.6,59.5,29.86,NNW,343,0.0,10.0,68,0.00,,BKN120,0.18,VWS V14.01,2013-11-02 22:57:00,
2013-11-02 18:58:00,70.6,59.5,29.86,NNW,342,0.0,10.0,68,0.00,,BKN120,0.18,VWS V14.01,2013-11-02 22:58:00,
2013-11-02 18:59:00,70.6,59.5,29.86,North,0,0.0,10.0,68,0.00,,BKN120,0.18,VWS V14.01,2013-11-02 22:59:00,
2013-11-02 19:00:00,70.6,59.5,29.87,North,11,1.0,10.0,68,0.00,,BKN120,0.18,VWS V14.01,2013-11-02 23:00:00,
2013-11-02 19:01:00,70.6,59.5,29.87,North,359,0.0,3.0,68,0.00,,BKN120,0.18,VWS V14.01,2013-11-02 23:01:00,
2013-11-02 19:02:00,70.6,59.5,29.87,North,356,0.0,6.0,68,0.00,,BKN120,0.18,VWS V14.01,2013-11-02 23:02:00,
2013-11-02 19:03:00,70.6,59.5,29.87,NW,322,2.0,6.0,68,0.00,,BKN120,0.18,VWS V14.01,2013-11-02 23:03:00,
2013-11-02 19:04:00,70.6,59.5,29.87,NNW,342,3.0,6.0,68,0.00,,BKN120,0.18,VWS V14.01,2013-11-02 23:04:00,
2013-11-02 19:05:00,70.6,59.5,29.87,North,0,0.0,12.0,68,0.00,,BKN120,0.18,VWS V14.01,2013-11-02 23:05:00,
2013-11-02 19:06:00,70.6,59.5,29.87,NNW,335,0.0,12.0,68,0.00,,BKN120,0.18,VWS V14.01,2013-11-02 23:06:00,
2013-11-02 19:07:00,70.6,59.5,29.87,NNW,335,0.0,12.0,68,0.00,,BKN120,0.18,VWS V14.01,2013-11-02 23:07:00,
2013-11-02 19:08:00,70.6,59.5,29.87,North,352,0.0,12.0,68,0.00,,BKN120,0.18,VWS V14.01,2013-11-02 23:08:00,
2013-11-02 19:09:00,70.6,59.5,29.87,NW,319,1.0,12.0,68,0.00,,BKN120,0.18,VWS V14.01,2013-11-02 23:09:00,
2013-11-02 19:10:00,70.6,59.5,29.87,NNE,13,0.0,12.0,68,0.00,,BKN120,0.18,VWS V14.01,2013-11-02 23:10:00,
2013-11-02 19:11:00,70.6,59.5,29.87,NNE,13,0.0,12.0,68,0.00,,BKN120,0.18,VWS V14.01,2013-11-02 23:11:00,
2013-11-02 19:12:00,70.6,59.5,29.87,NNW,340,4.0,12.0,68,0.00,,BKN120,0.18,VWS V14.01,2013-11-02 23:12:00,
2013-11-02 19:13:00,70.6,59.5,29.87,NNW,343,0.0,12.0,68,0.00,,BKN120,0.18,VWS V14.01,2013-11-02 23:13:00,
2013-11-02 19:14:00,70.6,59.5,29.87,North,0,0.0,12.0,68,0.00,,BKN120,0.18,VWS V14.01,2013-11-02 23:14:00,
2013-11-02 19:15:00,70.6,59.5,29.87,North,349,5.0,12.0,68,0.00,,BKN120,0.18,VWS V14.01,2013-11-02 23:15:00,
2013-11-02 19:16:00,70.6,59.5,29.87,North,349,0.0,12.0,68,0.00,,BKN120,0.18,VWS V14.01,2013-11-02 23:16:00,
2013-11-02 19:17:00,70.6,59.5,29.87,NW,323,0.0,12.0,68,0.00,,BKN120,0.18,VWS V14.01,2013-11-02 23:17:00,
2013-11-02 19:18:00,70.6,59.5,29.87,NNW,347,0.0,12.0,68,0.00,,BKN120,0.18,VWS V14.01,2013-11-02 23:18:00,
2013-11-02 19:19:00,70.6,59.5,29.87,NW,325,0.0,12.0,68,0.00,,BKN120,0.18,VWS V14.01,2013-11-02 23:19:00,
2013-11-02 19:20:00,70.6,59.5,29.87,North,350,0.0,12.0,68,0.00,,BKN120,0.18,VWS V14.01,2013-11-02 23:20:00,
2013-11-02 19:21:00,70.6,59.5,29.87,NNW,342,0.0,12.0,68,0.00,,BKN120,0.18,VWS V14.01,2013-11-02 23:21:00,
2013-11-02 19:22:00,70.6,59.5,29.87,North,0,0.0,12.0,68,0.00,,BKN120,0.18,VWS V14.01,2013-11-02 23:22:00,
2013-11-02 19:23:00,70.6,59.5,29.87,NNW,343,0.0,12.0,68,0.00,,BKN120,0.18,VWS V14.01,2013-11-02 23:23:00,
2013-11-02 19:24:00,70.6,59.5,29.87,North,359,0.0,12.0,68,0.00,,BKN120,0.18,VWS V14.01,2013-11-02 23:24:00,
2013-11-02 19:25:00,70.6,59.5,29.87,North,359,0.0,12.0,68,0.00,,BKN120,0.18,VWS V14.01,2013-11-02 23:25:00,
2013-11-02 19:26:00,70.6,59.5,29.87,North,8,5.0,12.0,68,0.00,,BKN120,0.18,VWS V14.01,2013-11-02 23:26:00,
2013-11-02 19:27:00,70.6,59.5,29.87,North,0,0.0,12.0,68,0.00,,BKN120,0.18,VWS V14.01,2013-11-02 23:27:00,
2013-11-02 19:28:00,70.6,59.5,29.87,NE,42,0.0,12.0,68,0.00,,BKN120,0.18,VWS V14.01,2013-11-02 23:28:00,
2013-11-02 19:29:00,70.6,59.5,29.87,NE,40,0.0,12.0,68,0.00,,BKN120,0.18,VWS V14.01,2013-11-02 23:29:00,
2013-11-02 19:30:00,70.4,59.3,29.88,NE,34,0.0,12.0,68,0.00,,BKN120,0.18,VWS V14.01,2013-11-02 23:30:00,
2013-11-02 19:31:00,70.4,59.3,29.88,North,354,0.0,1.0,68,0.00,,BKN120,0.18,VWS V14.01,2013-11-02 23:31:00,
2013-11-02 19:32:00,70.4,59.3,29.88,NNW,328,0.0,2.0,68,0.00,,BKN120,0.18,VWS V14.01,2013-11-02 23:32:00,
2013-11-02 19:33:00,70.4,59.3,29.88,NNW,336,0.0,3.0,68,0.00,,BKN120,0.18,VWS V14.01,2013-11-02 23:33:00,
2013-11-02 19:34:00,70.3,59.2,29.88,NNW,342,5.0,5.0,68,0.00,,BKN120,0.18,VWS V14.01,2013-11-02 23:34:00,
2013-11-02 19:35:00,70.3,59.2,29.88,North,359,0.0,5.0,68,0.00,,BKN120,0.18,VWS V14.01,2013-11-02 23:35:00,
2013-11-02 19:36:00,70.3,60.5,29.88,North,354,3.0,5.0,71,0.00,,BKN120,0.18,VWS V14.01,2013-11-02 23:36:00,
2013-11-02 19:37:00,70.3,60.5,29.88,North,0,0.0,5.0,71,0.00,,BKN120,0.18,VWS V14.01,2013-11-02 23:37:00,
2013-11-02 19:38:00,70.3,60.5,29.88,North,0,0.0,5.0,71,0.00,,BKN120,0.18,VWS V14.01,2013-11-02 23:38:00,
2013-11-02 19:39:00,70.3,60.5,29.88,North,352,0.0,5.0,71,0.00,,BKN120,0.18,VWS V14.01,2013-11-02 23:39:00,
2013-11-02 19:40:00,70.3,60.1,29.88,North,0,0.0,5.0,70,0.00,,BKN120,0.18,VWS V14.01,2013-11-02 23:40:00,
2013-11-02 19:41:00,70.3,60.5,29.88,North,4,5.0,5.0,71,0.00,,BKN120,0.18,VWS V14.01,2013-11-02 23:41:00,
2013-11-02 19:42:00,70.3,60.5,29.88,North,354,0.0,8.0,71,0.00,,BKN120,0.18,VWS V14.01,2013-11-02 23:42:00,
2013-11-02 19:43:00,70.3,60.5,29.88,NNW,346,2.0,8.0,71,0.00,,BKN120,0.18,VWS V14.01,2013-11-02 23:43:00,
2013-11-02 19:44:00,70.3,60.5,29.88,NNW,329,0.0,8.0,71,0.00,,BKN120,0.18,VWS V14.01,2013-11-02 23:44:00,
2013-11-02 19:45:00,70.3,60.9,29.89,North,349,2.0,8.0,72,0.00,,BKN120,0.18,VWS V14.01,2013-11-02 23:45:00,
2013-11-02 19:46:00,70.3,60.9,29.89,NNW,347,0.0,8.0,72,0.00,,BKN120,0.18,VWS V14.01,2013-11-02 23:46:00,
2013-11-02 19:47:00,70.3,60.9,29.89,NNW,339,0.0,8.0,72,0.00,,BKN120,0.18,VWS V14.01,2013-11-02 23:47:00,
2013-11-02 19:48:00,70.3,60.9,29.89,NNW,343,0.0,8.0,72,0.00,,BKN120,0.18,VWS V14.01,2013-11-02 23:48:00,
2013-11-02 19:49:00,70.3,60.9,29.89,NNW,330,0.0,8.0,72,0.00,,BKN120,0.18,VWS V14.01,2013-11-02 23:49:00,
2013-11-02 19:50:00,70.3,60.9,29.89,North,357,0.0,8.0,72,0.00,,BKN120,0.18,VWS V14.01,2013-11-02 23:50:00,
2013-11-02 19:51:00,70.3,60.9,29.89,North,352,0.0,8.0,72,0.00,,BKN120,0.18,VWS V14.01,2013-11-02 23:51:00,
2013-11-02 19:52:00,70.3,60.9,29.89,North,356,2.0,8.0,72,0.00,,BKN120,0.18,VWS V14.01,2013-11-02 23:52:00,
2013-11-02 19:53:00,70.3,60.9,29.89,NNW,347,0.0,8.0,72,0.00,,BKN120,0.18,VWS V14.01,2013-11-02 23:53:00,
2013-11-02 19:54:00,70.1,60.7,29.89,North,349,6.0,8.0,72,0.00,,BKN120,0.18,VWS V14.01,2013-11-02 23:54:00,
2013-11-02 19:55:00,70.1,60.7,29.89,North,353,0.0,8.0,72,0.00,,BKN120,0.18,VWS V14.01,2013-11-02 23:55:00,
2013-11-02 19:56:00,70.1,60.7,29.89,North,353,0.0,8.0,72,0.00,,BKN120,0.18,VWS V14.01,2013-11-02 23:56:00,
2013-11-02 19:57:00,70.1,60.7,29.89,North,354,0.0,8.0,72,0.00,,BKN120,0.18,VWS V14.01,2013-11-02 23:57:00,
2013-11-02 19:58:00,70.1,60.7,29.89,North,354,0.0,8.0,72,0.00,,BKN120,0.18,VWS V14.01,2013-11-02 23:58:00,
2013-11-02 19:59:00,70.1,60.7,29.89,North,354,0.0,8.0,72,0.00,,BKN120,0.18,VWS V14.01,2013-11-02 23:59:00,
2013-11-02 20:00:00,70.1,61.0,29.90,North,353,0.0,8.0,73,0.00,,BKN120,0.18,VWS V14.01,2013-11-03 00:00:00,
2013-11-02 20:01:00,70.1,61.0,29.90,North,354,0.0,0.0,73,0.00,,BKN120,0.18,VWS V14.01,2013-11-03 00:01:00,
2013-11-02 20:02:00,69.9,60.9,29.90,North,354,0.0,0.0,73,0.00,,BKN120,0.18,VWS V14.01,2013-11-03 00:02:00,
2013-11-02 20:03:00,69.8,60.8,29.90,North,354,0.0,0.0,73,0.00,,BKN120,0.18,VWS V14.01,2013-11-03 00:03:00,
2013-11-02 20:04:00,69.8,60.8,29.90,North,354,0.0,0.0,73,0.00,,BKN120,0.18,VWS V14.01,2013-11-03 00:04:00,
2013-11-02 20:05:00,69.6,60.6,29.90,North,354,0.0,0.0,73,0.00,,BKN120,0.18,VWS V14.01,2013-11-03 00:05:00,
2013-11-02 20:06:00,69.4,60.4,29.90,North,353,0.0,0.0,73,0.00,,BKN120,0.18,VWS V14.01,2013-11-03 00:06:00,
2013-11-02 20:07:00,69.4,60.4,29.90,North,354,0.0,0.0,73,0.00,,BKN120,0.18,VWS V14.01,2013-11-03 00:07:00,
2013-11-02 20:08:00,69.3,59.9,29.90,North,354,0.0,0.0,72,0.00,,BKN120,0.18,VWS V14.01,2013-11-03 00:08:00,
2013-11-02 20:09:00,69.1,59.7,29.90,North,354,0.0,0.0,72,0.00,,BKN120,0.18,VWS V14.01,2013-11-03 00:09:00,
2013-11-02 20:10:00,69.1,59.7,29.90,North,354,0.0,0.0,72,0.00,,BKN120,0.18,VWS V14.01,2013-11-03 00:10:00,
2013-11-02 20:11:00,68.9,59.5,29.90,North,354,0.0,0.0,72,0.00,,BKN120,0.18,VWS V14.01,2013-11-03 00:11:00,
2013-11-02 20:12:00,68.9,59.5,29.90,North,354,0.0,0.0,72,0.00,,CLR,0.18,VWS V14.01,2013-11-03 00:12:00,
2013-11-02 20:13:00,68.9,59.5,29.90,North,354,0.0,0.0,72,0.00,,CLR,0.18,VWS V14.01,2013-11-03 00:13:00,
2013-11-02 20:14:00,68.8,59.4,29.90,North,353,0.0,0.0,72,0.00,,CLR,0.18,VWS V14.01,2013-11-03 00:14:00,
2013-11-02 20:15:00,68.6,59.2,29.90,North,354,0.0,0.0,72,0.00,,CLR,0.18,VWS V14.01,2013-11-03 00:15:00,
2013-11-02 20:16:00,68.4,59.0,29.90,North,354,0.0,0.0,72,0.00,,CLR,0.18,VWS V14.01,2013-11-03 00:16:00,
2013-11-02 20:17:00,68.4,59.8,29.90,North,354,0.0,0.0,74,0.00,,CLR,0.18,VWS V14.01,2013-11-03 00:17:00,
2013-11-02 20:18:00,68.3,59.7,29.90,North,354,0.0,0.0,74,0.00,,CLR,0.18,VWS V14.01,2013-11-03 00:18:00,
2013-11-02 20:19:00,68.3,60.1,29.90,North,354,0.0,0.0,75,0.00,,CLR,0.18,VWS V14.01,2013-11-03 00:19:00,
2013-11-02 20:20:00,68.3,60.1,29.90,North,354,0.0,0.0,75,0.00,,CLR,0.18,VWS V14.01,2013-11-03 00:20:00,
2013-11-02 20:21:00,68.1,59.9,29.90,North,354,0.0,0.0,75,0.00,,CLR,0.18,VWS V14.01,2013-11-03 00:21:00,
2013-11-02 20:22:00,68.1,59.9,29.90,North,353,0.0,0.0,75,0.00,,CLR,0.18,VWS V14.01,2013-11-03 00:22:00,
2013-11-02 20:23:00,67.9,59.7,29.90,North,354,0.0,0.0,75,0.00,,CLR,0.18,VWS V14.01,2013-11-03 00:23:00,
2013-11-02 20:24:00,67.9,59.7,29.90,North,354,0.0,0.0,75,0.00,,CLR,0.18,VWS V14.01,2013-11-03 00:24:00,
2013-11-02 20:25:00,67.8,60.0,29.90,North,354,0.0,0.0,76,0.00,,CLR,0.18,VWS V14.01,2013-11-03 00:25:00,
2013-11-02 20:26:00,67.8,60.0,29.90,North,354,0.0,0.0,76,0.00,,CLR,0.18,VWS V14.01,2013-11-03 00:26:00,
2013-11-02 20:27:00,67.6,59.8,29.90,North,354,0.0,0.0,76,0.00,,CLR,0.18,VWS V14.01,2013-11-03 00:27:00,
2013-11-02 20:28:00,67.6,59.8,29.90,North,354,0.0,0.0,76,0.00,,CLR,0.18,VWS V14.01,2013-11-03 00:28:00,
2013-11-02 20:29:00,67.6,59.8,29.90,North,354,0.0,0.0,76,0.00,,CLR,0.18,VWS V14.01,2013-11-03 00:29:00,
2013-11-02 20:30:00,67.4,59.6,29.91,North,354,0.0,0.0,76,0.00,,CLR,0.18,VWS V14.01,2013-11-03 00:30:00,
2013-11-02 20:31:00,67.4,59.6,29.91,North,354,0.0,0.0,76,0.00,,CLR,0.18,VWS V14.01,2013-11-03 00:31:00,
2013-11-02 20:32:00,67.4,59.6,29.91,North,354,0.0,0.0,76,0.00,,CLR,0.18,VWS V14.01,2013-11-03 00:32:00,
2013-11-02 20:33:00,67.3,59.5,29.91,North,354,0.0,0.0,76,0.00,,CLR,0.18,VWS V14.01,2013-11-03 00:33:00,
2013-11-02 20:34:00,67.1,59.3,29.91,North,353,0.0,0.0,76,0.00,,CLR,0.18,VWS V14.01,2013-11-03 00:34:00,
2013-11-02 20:35:00,67.1,59.3,29.91,North,354,0.0,0.0,76,0.00,,CLR,0.18,VWS V14.01,2013-11-03 00:35:00,
2013-11-02 20:36:00,67.1,59.3,29.91,North,354,0.0,0.0,76,0.00,,CLR,0.18,VWS V14.01,2013-11-03 00:36:00,
2013-11-02 20:37:00,67.1,59.3,29.91,North,354,0.0,0.0,76,0.00,,CLR,0.18,VWS V14.01,2013-11-03 00:37:00,
2013-11-02 20:38:00,66.9,59.1,29.91,North,354,0.0,0.0,76,0.00,,CLR,0.18,VWS V14.01,2013-11-03 00:38:00,
2013-11-02 20:39:00,66.9,60.2,29.91,North,354,0.0,0.0,79,0.00,,CLR,0.18,VWS V14.01,2013-11-03 00:39:00,
2013-11-02 20:40:00,66.8,60.1,29.91,North,354,0.0,0.0,79,0.00,,CLR,0.18,VWS V14.01,2013-11-03 00:40:00,
2013-11-02 20:41:00,66.8,60.1,29.91,North,354,0.0,0.0,79,0.00,,CLR,0.18,VWS V14.01,2013-11-03 00:41:00,
2013-11-02 20:42:00,66.6,59.9,29.91,North,354,0.0,0.0,79,0.00,,CLR,0.18,VWS V14.01,2013-11-03 00:42:00,
2013-11-02 20:43:00,66.6,59.9,29.91,North,354,0.0,0.0,79,0.00,,CLR,0.18,VWS V14.01,2013-11-03 00:43:00,
2013-11-02 20:44:00,66.6,59.9,29.91,North,354,0.0,0.0,79,0.00,,CLR,0.18,VWS V14.01,2013-11-03 00:44:00,
2013-11-02 20:45:00,66.4,59.7,29.91,North,354,0.0,0.0,79,0.00,,CLR,0.18,VWS V14.01,2013-11-03 00:45:00,
2013-11-02 20:46:00,66.4,59.7,29.91,North,354,0.0,0.0,79,0.00,,CLR,0.18,VWS V14.01,2013-11-03 00:46:00,
2013-11-02 20:47:00,66.4,59.7,29.91,North,354,0.0,0.0,79,0.00,,CLR,0.18,VWS V14.01,2013-11-03 00:47:00,
2013-11-02 20:48:00,66.3,59.6,29.91,North,354,0.0,0.0,79,0.00,,CLR,0.18,VWS V14.01,2013-11-03 00:48:00,
2013-11-02 20:49:00,66.3,59.6,29.91,North,354,0.0,0.0,79,0.00,,CLR,0.18,VWS V14.01,2013-11-03 00:49:00,
2013-11-02 20:50:00,66.3,59.6,29.91,North,354,0.0,0.0,79,0.00,,CLR,0.18,VWS V14.01,2013-11-03 00:50:00,
2013-11-02 20:51:00,66.3,59.6,29.91,North,354,0.0,0.0,79,0.00,,CLR,0.18,VWS V14.01,2013-11-03 00:51:00,
2013-11-02 20:52:00,66.3,59.6,29.91,North,354,0.0,0.0,79,0.00,,CLR,0.18,VWS V14.01,2013-11-03 00:52:00,
2013-11-02 20:53:00,66.1,59.8,29.91,North,354,0.0,0.0,80,0.00,,CLR,0.18,VWS V14.01,2013-11-03 00:53:00,
2013-11-02 20:54:00,66.1,59.8,29.91,North,354,0.0,0.0,80,0.00,,CLR,0.18,VWS V14.01,2013-11-03 00:54:00,
2013-11-02 20:55:00,66.1,59.8,29.91,North,354,0.0,0.0,80,0.00,,CLR,0.18,VWS V14.01,2013-11-03 00:55:00,
2013-11-02 20:56:00,66.1,59.8,29.91,North,354,0.0,0.0,80,0.00,,CLR,0.18,VWS V14.01,2013-11-03 00:56:00,
2013-11-02 20:57:00,66.1,59.8,29.91,North,354,0.0,0.0,80,0.00,,CLR,0.18,VWS V14.01,2013-11-03 00:57:00,
2013-11-02 20:58:00,66.0,59.7,29.91,North,354,0.0,0.0,80,0.00,,CLR,0.18,VWS V14.01,2013-11-03 00:58:00,
2013-11-02 20:59:00,66.0,59.7,29.91,North,354,0.0,0.0,80,0.00,,CLR,0.18,VWS V14.01,2013-11-03 00:59:00,
2013-11-02 21:00:00,66.0,59.7,29.92,North,354,0.0,0.0,80,0.00,,CLR,0.18,VWS V14.01,2013-11-03 01:00:00,
2013-11-02 21:01:00,66.0,59.7,29.92,North,354,0.0,0.0,80,0.00,,CLR,0.18,VWS V14.01,2013-11-03 01:01:00,
2013-11-02 21:02:00,65.8,59.5,29.92,North,354,0.0,0.0,80,0.00,,CLR,0.18,VWS V14.01,2013-11-03 01:02:00,
2013-11-02 21:03:00,65.8,59.5,29.92,North,354,0.0,0.0,80,0.00,,CLR,0.18,VWS V14.01,2013-11-03 01:03:00,
2013-11-02 21:04:00,65.8,59.5,29.92,North,354,0.0,0.0,80,0.00,,CLR,0.18,VWS V14.01,2013-11-03 01:04:00,
2013-11-02 21:05:00,65.8,59.5,29.92,North,354,0.0,0.0,80,0.00,,CLR,0.18,VWS V14.01,2013-11-03 01:05:00,
2013-11-02 21:06:00,65.8,59.5,29.92,North,354,0.0,0.0,80,0.00,,CLR,0.18,VWS V14.01,2013-11-03 01:06:00,
2013-11-02 21:07:00,65.8,59.5,29.92,North,354,0.0,0.0,80,0.00,,CLR,0.18,VWS V14.01,2013-11-03 01:07:00,
2013-11-02 21:08:00,65.6,59.3,29.92,North,354,0.0,0.0,80,0.00,,CLR,0.18,VWS V14.01,2013-11-03 01:08:00,
2013-11-02 21:09:00,65.6,59.3,29.92,North,354,0.0,0.0,80,0.00,,CLR,0.18,VWS V14.01,2013-11-03 01:09:00,
2013-11-02 21:10:00,65.6,59.3,29.92,North,354,0.0,0.0,80,0.00,,CLR,0.18,VWS V14.01,2013-11-03 01:10:00,
2013-11-02 21:11:00,65.6,59.3,29.92,North,354,0.0,0.0,80,0.00,,CLR,0.18,VWS V14.01,2013-11-03 01:11:00,
2013-11-02 21:12:00,65.6,60.3,29.92,North,354,0.0,0.0,83,0.00,,FEW110,0.18,VWS V14.01,2013-11-03 01:12:00,
2013-11-02 21:13:00,65.6,60.3,29.92,North,354,0.0,0.0,83,0.00,,FEW110,0.18,VWS V14.01,2013-11-03 01:13:00,
2013-11-02 21:14:00,65.5,60.2,29.92,North,354,0.0,0.0,83,0.00,,FEW110,0.18,VWS V14.01,2013-11-03 01:14:00,
2013-11-02 21:15:00,65.5,60.2,29.92,North,354,0.0,0.0,83,0.00,,FEW110,0.18,VWS V14.01,2013-11-03 01:15:00,
2013-11-02 21:16:00,65.5,60.2,29.92,North,354,0.0,0.0,83,0.00,,FEW110,0.18,VWS V14.01,2013-11-03 01:16:00,
2013-11-02 21:17:00,65.5,60.2,29.92,North,354,0.0,0.0,83,0.00,,FEW110,0.18,VWS V14.01,2013-11-03 01:17:00,
2013-11-02 21:18:00,65.5,60.2,29.92,North,354,0.0,0.0,83,0.00,,FEW110,0.18,VWS V14.01,2013-11-03 01:18:00,
2013-11-02 21:19:00,65.3,60.0,29.92,North,354,0.0,0.0,83,0.00,,FEW110,0.18,VWS V14.01,2013-11-03 01:19:00,
2013-11-02 21:20:00,65.3,60.0,29.92,North,354,0.0,0.0,83,0.00,,FEW110,0.18,VWS V14.01,2013-11-03 01:20:00,
2013-11-02 21:21:00,65.3,60.3,29.92,North,354,0.0,0.0,84,0.00,,FEW110,0.18,VWS V14.01,2013-11-03 01:21:00,
2013-11-02 21:22:00,65.3,60.3,29.92,North,354,0.0,0.0,84,0.00,,FEW110,0.18,VWS V14.01,2013-11-03 01:22:00,
2013-11-02 21:23:00,65.3,60.3,29.92,North,354,0.0,0.0,84,0.00,,FEW110,0.18,VWS V14.01,2013-11-03 01:23:00,
2013-11-02 21:24:00,65.3,60.3,29.92,North,354,0.0,0.0,84,0.00,,FEW110,0.18,VWS V14.01,2013-11-03 01:24:00,
2013-11-02 21:25:00,65.2,60.2,29.92,North,354,0.0,0.0,84,0.00,,FEW110,0.18,VWS V14.01,2013-11-03 01:25:00,
2013-11-02 21:26:00,65.2,60.2,29.92,North,354,0.0,0.0,84,0.00,,FEW110,0.18,VWS V14.01,2013-11-03 01:26:00,
2013-11-02 21:27:00,65.2,60.2,29.92,North,354,0.0,0.0,84,0.00,,FEW110,0.18,VWS V14.01,2013-11-03 01:27:00,
2013-11-02 21:28:00,65.2,60.2,29.92,North,354,0.0,0.0,84,0.00,,FEW110,0.18,VWS V14.01,2013-11-03 01:28:00,
2013-11-02 21:29:00,65.2,60.2,29.92,North,354,0.0,0.0,84,0.00,,FEW110,0.18,VWS V14.01,2013-11-03 01:29:00,
2013-11-02 21:30:00,65.2,60.2,29.92,North,354,0.0,0.0,84,0.00,,FEW110,0.18,VWS V14.01,2013-11-03 01:30:00,
2013-11-02 21:31:00,65.2,60.2,29.92,North,354,0.0,0.0,84,0.00,,FEW110,0.18,VWS V14.01,2013-11-03 01:31:00,
2013-11-02 21:32:00,65.2,60.2,29.92,North,354,0.0,0.0,84,0.00,,FEW110,0.18,VWS V14.01,2013-11-03 01:32:00,
2013-11-02 21:33:00,65.0,60.0,29.92,North,354,0.0,0.0,84,0.00,,FEW110,0.18,VWS V14.01,2013-11-03 01:33:00,
2013-11-02 21:34:00,65.0,60.0,29.92,North,354,0.0,0.0,84,0.00,,FEW110,0.18,VWS V14.01,2013-11-03 01:34:00,
2013-11-02 21:35:00,65.0,60.0,29.92,North,354,0.0,0.0,84,0.00,,FEW110,0.18,VWS V14.01,2013-11-03 01:35:00,
2013-11-02 21:36:00,65.0,60.0,29.92,North,354,0.0,0.0,84,0.00,,FEW110,0.18,VWS V14.01,2013-11-03 01:36:00,
2013-11-02 21:37:00,65.0,60.4,29.92,North,354,0.0,0.0,85,0.00,,FEW110,0.18,VWS V14.01,2013-11-03 01:37:00,
2013-11-02 21:38:00,65.0,60.4,29.92,North,354,0.0,0.0,85,0.00,,FEW110,0.18,VWS V14.01,2013-11-03 01:38:00,
2013-11-02 21:39:00,65.0,60.4,29.92,North,354,0.0,0.0,85,0.00,,FEW110,0.18,VWS V14.01,2013-11-03 01:39:00,
2013-11-02 21:40:00,65.0,60.4,29.92,North,354,0.0,0.0,85,0.00,,FEW110,0.18,VWS V14.01,2013-11-03 01:40:00,
2013-11-02 21:41:00,64.8,60.2,29.92,North,354,0.0,0.0,85,0.00,,FEW110,0.18,VWS V14.01,2013-11-03 01:41:00,
2013-11-02 21:42:00,64.8,60.2,29.92,North,354,0.0,0.0,85,0.00,,FEW110,0.18,VWS V14.01,2013-11-03 01:42:00,
2013-11-02 21:43:00,64.8,60.5,29.92,North,354,0.0,0.0,86,0.00,,FEW110,0.18,VWS V14.01,2013-11-03 01:43:00,
2013-11-02 21:44:00,64.8,60.5,29.92,North,354,0.0,0.0,86,0.00,,FEW110,0.18,VWS V14.01,2013-11-03 01:44:00,
2013-11-02 21:45:00,64.8,60.5,29.93,North,354,0.0,0.0,86,0.00,,FEW110,0.18,VWS V14.01,2013-11-03 01:45:00,
2013-11-02 21:46:00,64.8,60.5,29.93,North,354,0.0,0.0,86,0.00,,FEW110,0.18,VWS V14.01,2013-11-03 01:46:00,
2013-11-02 21:47:00,64.8,60.5,29.93,North,354,0.0,0.0,86,0.00,,FEW110,0.18,VWS V14.01,2013-11-03 01:47:00,
2013-11-02 21:48:00,64.8,60.5,29.93,North,354,0.0,0.0,86,0.00,,FEW110,0.18,VWS V14.01,2013-11-03 01:48:00,
2013-11-02 21:49:00,64.8,60.5,29.93,North,354,0.0,0.0,86,0.00,,FEW110,0.18,VWS V14.01,2013-11-03 01:49:00,
2013-11-02 21:50:00,64.8,60.5,29.93,North,354,0.0,0.0,86,0.00,,FEW110,0.18,VWS V14.01,2013-11-03 01:50:00,
2013-11-02 21:51:00,64.7,60.4,29.93,North,354,0.0,0.0,86,0.00,,FEW110,0.18,VWS V14.01,2013-11-03 01:51:00,
2013-11-02 21:52:00,64.7,60.4,29.93,North,354,0.0,0.0,86,0.00,,FEW110,0.18,VWS V14.01,2013-11-03 01:52:00,
2013-11-02 21:53:00,64.7,60.4,29.93,North,354,0.0,0.0,86,0.00,,FEW110,0.18,VWS V14.01,2013-11-03 01:53:00,
2013-11-02 21:54:00,64.7,60.4,29.93,North,354,0.0,0.0,86,0.00,,FEW110,0.18,VWS V14.01,2013-11-03 01:54:00,
2013-11-02 21:55:00,64.7,60.4,29.93,North,354,0.0,0.0,86,0.00,,FEW110,0.18,VWS V14.01,2013-11-03 01:55:00,
2013-11-02 21:56:00,64.7,60.4,29.93,North,354,0.0,0.0,86,0.00,,FEW110,0.18,VWS V14.01,2013-11-03 01:56:00,
2013-11-02 21:57:00,64.5,60.2,29.93,North,354,0.0,0.0,86,0.00,,FEW110,0.18,VWS V14.01,2013-11-03 01:57:00,
2013-11-02 21:58:00,64.5,60.2,29.93,North,354,0.0,0.0,86,0.00,,FEW110,0.18,VWS V14.01,2013-11-03 01:58:00,
2013-11-02 21:59:00,64.5,60.2,29.93,North,354,0.0,0.0,86,0.00,,FEW110,0.18,VWS V14.01,2013-11-03 01:59:00,
2013-11-02 22:00:00,64.5,60.2,29.93,North,354,0.0,0.0,86,0.00,,FEW110,0.18,VWS V14.01,2013-11-03 02:00:00,
2013-11-02 22:01:00,64.5,60.2,29.93,North,354,0.0,0.0,86,0.00,,FEW110,0.18,VWS V14.01,2013-11-03 02:01:00,
2013-11-02 22:02:00,64.5,60.2,29.93,North,354,0.0,0.0,86,0.00,,FEW110,0.18,VWS V14.01,2013-11-03 02:02:00,
2013-11-02 22:03:00,64.5,60.2,29.93,North,354,0.0,0.0,86,0.00,,FEW110,0.18,VWS V14.01,2013-11-03 02:03:00,
2013-11-02 22:04:00,64.5,60.2,29.93,North,354,0.0,0.0,86,0.00,,FEW110,0.18,VWS V14.01,2013-11-03 02:04:00,
2013-11-02 22:05:00,64.5,60.2,29.93,North,354,0.0,0.0,86,0.00,,FEW110,0.18,VWS V14.01,2013-11-03 02:05:00,
2013-11-02 22:06:00,64.5,60.2,29.93,North,354,0.0,0.0,86,0.00,,FEW110,0.18,VWS V14.01,2013-11-03 02:06:00,
2013-11-02 22:07:00,64.3,60.0,29.93,North,354,0.0,0.0,86,0.00,,FEW110,0.18,VWS V14.01,2013-11-03 02:07:00,
2013-11-02 22:08:00,64.3,60.3,29.93,North,354,0.0,0.0,87,0.00,,FEW110,0.18,VWS V14.01,2013-11-03 02:08:00,
2013-11-02 22:09:00,64.3,60.3,29.93,North,354,0.0,0.0,87,0.00,,FEW110,0.18,VWS V14.01,2013-11-03 02:09:00,
2013-11-02 22:10:00,64.3,60.3,29.93,North,354,0.0,0.0,87,0.00,,FEW110,0.18,VWS V14.01,2013-11-03 02:10:00,
2013-11-02 22:11:00,64.3,60.3,29.93,North,354,0.0,0.0,87,0.00,,FEW110,0.18,VWS V14.01,2013-11-03 02:11:00,
2013-11-02 22:12:00,64.3,60.3,29.93,North,354,0.0,0.0,87,0.00,,CLR,0.18,VWS V14.01,2013-11-03 02:12:00,
2013-11-02 22:13:00,64.3,60.3,29.93,North,354,0.0,0.0,87,0.00,,CLR,0.18,VWS V14.01,2013-11-03 02:13:00,
2013-11-02 22:14:00,64.3,60.3,29.93,North,354,0.0,0.0,87,0.00,,CLR,0.18,VWS V14.01,2013-11-03 02:14:00,
2013-11-02 22:15:00,64.2,60.3,29.94,North,354,0.0,0.0,87,0.00,,CLR,0.18,VWS V14.01,2013-11-03 02:15:00,
2013-11-02 22:16:00,64.2,60.3,29.94,North,354,0.0,0.0,87,0.00,,CLR,0.18,VWS V14.01,2013-11-03 02:16:00,
2013-11-02 22:17:00,64.2,60.3,29.94,North,354,0.0,0.0,87,0.00,,CLR,0.18,VWS V14.01,2013-11-03 02:17:00,
2013-11-02 22:18:00,64.2,60.3,29.94,North,354,0.0,0.0,87,0.00,,CLR,0.18,VWS V14.01,2013-11-03 02:18:00,
2013-11-02 22:19:00,64.2,60.3,29.94,North,354,0.0,0.0,87,0.00,,CLR,0.18,VWS V14.01,2013-11-03 02:19:00,
2013-11-02 22:20:00,64.2,60.3,29.94,North,354,0.0,0.0,87,0.00,,CLR,0.18,VWS V14.01,2013-11-03 02:20:00,
2013-11-02 22:21:00,64.2,60.3,29.94,North,354,0.0,0.0,87,0.00,,CLR,0.18,VWS V14.01,2013-11-03 02:21:00,
2013-11-02 22:22:00,64.2,60.3,29.94,North,354,0.0,0.0,87,0.00,,CLR,0.18,VWS V14.01,2013-11-03 02:22:00,
2013-11-02 22:23:00,64.2,60.3,29.94,North,354,0.0,0.0,87,0.00,,CLR,0.18,VWS V14.01,2013-11-03 02:23:00,
2013-11-02 22:24:00,64.2,60.3,29.94,North,354,0.0,0.0,87,0.00,,CLR,0.18,VWS V14.01,2013-11-03 02:24:00,
2013-11-02 22:25:00,64.2,60.3,29.94,North,354,0.0,0.0,87,0.00,,CLR,0.18,VWS V14.01,2013-11-03 02:25:00,
2013-11-02 22:26:00,64.2,60.3,29.94,North,354,0.0,0.0,87,0.00,,CLR,0.18,VWS V14.01,2013-11-03 02:26:00,
2013-11-02 22:27:00,64.2,60.3,29.94,North,354,0.0,0.0,87,0.00,,CLR,0.18,VWS V14.01,2013-11-03 02:27:00,
2013-11-02 22:28:00,64.2,60.3,29.94,North,354,0.0,0.0,87,0.00,,CLR,0.18,VWS V14.01,2013-11-03 02:28:00,
2013-11-02 22:29:00,64.2,60.3,29.94,North,354,0.0,0.0,87,0.00,,CLR,0.18,VWS V14.01,2013-11-03 02:29:00,
2013-11-02 22:30:00,64.2,60.3,29.94,North,354,0.0,0.0,87,0.00,,CLR,0.18,VWS V14.01,2013-11-03 02:30:00,
2013-11-02 22:31:00,64.0,60.1,29.94,North,354,0.0,0.0,87,0.00,,CLR,0.18,VWS V14.01,2013-11-03 02:31:00,
2013-11-02 22:32:00,64.0,60.1,29.94,North,354,0.0,0.0,87,0.00,,CLR,0.18,VWS V14.01,2013-11-03 02:32:00,
2013-11-02 22:33:00,64.0,60.1,29.94,North,354,0.0,0.0,87,0.00,,CLR,0.18,VWS V14.01,2013-11-03 02:33:00,
2013-11-02 22:34:00,64.0,60.1,29.94,North,354,0.0,0.0,87,0.00,,CLR,0.18,VWS V14.01,2013-11-03 02:34:00,
2013-11-02 22:35:00,64.0,60.1,29.94,North,354,0.0,0.0,87,0.00,,CLR,0.18,VWS V14.01,2013-11-03 02:35:00,
2013-11-02 22:36:00,64.0,60.1,29.94,North,354,0.0,0.0,87,0.00,,CLR,0.18,VWS V14.01,2013-11-03 02:36:00,
2013-11-02 22:37:00,64.0,60.1,29.94,North,354,0.0,0.0,87,0.00,,CLR,0.18,VWS V14.01,2013-11-03 02:37:00,
2013-11-02 22:38:00,63.9,60.0,29.94,North,354,0.0,0.0,87,0.00,,CLR,0.18,VWS V14.01,2013-11-03 02:38:00,
2013-11-02 22:39:00,63.9,60.0,29.94,North,354,0.0,0.0,87,0.00,,CLR,0.18,VWS V14.01,2013-11-03 02:39:00,
2013-11-02 22:40:00,63.9,60.0,29.94,North,354,0.0,0.0,87,0.00,,CLR,0.18,VWS V14.01,2013-11-03 02:40:00,
2013-11-02 22:41:00,63.9,60.0,29.94,North,354,0.0,0.0,87,0.00,,CLR,0.18,VWS V14.01,2013-11-03 02:41:00,
2013-11-02 22:42:00,63.9,60.0,29.94,North,354,0.0,0.0,87,0.00,,CLR,0.18,VWS V14.01,2013-11-03 02:42:00,
2013-11-02 22:43:00,63.9,60.0,29.94,North,354,0.0,0.0,87,0.00,,CLR,0.18,VWS V14.01,2013-11-03 02:43:00,
2013-11-02 22:44:00,63.9,60.0,29.94,North,354,0.0,0.0,87,0.00,,CLR,0.18,VWS V14.01,2013-11-03 02:44:00,
2013-11-02 22:45:00,63.7,59.8,29.93,North,354,0.0,0.0,87,0.00,,CLR,0.18,VWS V14.01,2013-11-03 02:45:00,
2013-11-02 22:46:00,63.7,59.8,29.93,North,354,0.0,0.0,87,0.00,,CLR,0.18,VWS V14.01,2013-11-03 02:46:00,
2013-11-02 22:47:00,63.7,59.8,29.93,North,354,0.0,0.0,87,0.00,,CLR,0.18,VWS V14.01,2013-11-03 02:47:00,
2013-11-02 22:48:00,63.7,59.8,29.93,North,354,0.0,0.0,87,0.00,,CLR,0.18,VWS V14.01,2013-11-03 02:48:00,
2013-11-02 22:49:00,63.7,59.8,29.93,North,354,0.0,0.0,87,0.00,,CLR,0.18,VWS V14.01,2013-11-03 02:49:00,
2013-11-02 22:50:00,63.7,59.8,29.93,North,354,0.0,0.0,87,0.00,,CLR,0.18,VWS V14.01,2013-11-03 02:50:00,
2013-11-02 22:51:00,63.7,59.8,29.93,North,354,0.0,0.0,87,0.00,,CLR,0.18,VWS V14.01,2013-11-03 02:51:00,
2013-11-02 22:52:00,63.7,59.8,29.93,North,354,0.0,0.0,87,0.00,,CLR,0.18,VWS V14.01,2013-11-03 02:52:00,
2013-11-02 22:53:00,63.7,59.8,29.93,North,354,0.0,0.0,87,0.00,,CLR,0.18,VWS V14.01,2013-11-03 02:53:00,
2013-11-02 22:54:00,63.7,59.8,29.93,North,354,0.0,0.0,87,0.00,,CLR,0.18,VWS V14.01,2013-11-03 02:54:00,
2013-11-02 22:55:00,63.5,59.6,29.93,North,354,0.0,0.0,87,0.00,,CLR,0.18,VWS V14.01,2013-11-03 02:55:00,
2013-11-02 22:56:00,63.5,59.6,29.93,North,354,0.0,0.0,87,0.00,,CLR,0.18,VWS V14.01,2013-11-03 02:56:00,
2013-11-02 22:57:00,63.5,59.6,29.93,North,354,0.0,0.0,87,0.00,,CLR,0.18,VWS V14.01,2013-11-03 02:57:00,
2013-11-02 22:58:00,63.5,59.6,29.93,North,354,0.0,0.0,87,0.00,,CLR,0.18,VWS V14.01,2013-11-03 02:58:00,
2013-11-02 22:59:00,63.5,59.9,29.93,North,354,0.0,0.0,88,0.00,,CLR,0.18,VWS V14.01,2013-11-03 02:59:00,
2013-11-02 23:00:00,63.5,59.9,29.93,North,354,0.0,0.0,88,0.00,,CLR,0.18,VWS V14.01,2013-11-03 03:00:00,
2013-11-02 23:01:00,63.5,59.9,29.93,North,354,0.0,0.0,88,0.00,,CLR,0.18,VWS V14.01,2013-11-03 03:01:00,
2013-11-02 23:02:00,63.5,59.9,29.93,North,354,0.0,0.0,88,0.00,,CLR,0.18,VWS V14.01,2013-11-03 03:02:00,
2013-11-02 23:03:00,63.5,59.9,29.93,North,354,0.0,0.0,88,0.00,,CLR,0.18,VWS V14.01,2013-11-03 03:03:00,
2013-11-02 23:04:00,63.5,59.9,29.93,North,354,0.0,0.0,88,0.00,,CLR,0.18,VWS V14.01,2013-11-03 03:04:00,
2013-11-02 23:05:00,63.5,59.9,29.93,North,354,0.0,0.0,88,0.00,,CLR,0.18,VWS V14.01,2013-11-03 03:05:00,
2013-11-02 23:06:00,63.5,59.9,29.93,North,354,0.0,0.0,88,0.00,,CLR,0.18,VWS V14.01,2013-11-03 03:06:00,
2013-11-02 23:07:00,63.5,59.9,29.93,North,354,0.0,0.0,88,0.00,,CLR,0.18,VWS V14.01,2013-11-03 03:07:00,
2013-11-02 23:08:00,63.5,59.6,29.93,North,354,0.0,0.0,87,0.00,,CLR,0.18,VWS V14.01,2013-11-03 03:08:00,
2013-11-02 23:09:00,63.5,59.6,29.93,North,354,0.0,0.0,87,0.00,,CLR,0.18,VWS V14.01,2013-11-03 03:09:00,
2013-11-02 23:10:00,63.5,59.6,29.93,North,354,0.0,0.0,87,0.00,,CLR,0.18,VWS V14.01,2013-11-03 03:10:00,
2013-11-02 23:11:00,63.5,59.6,29.93,North,354,0.0,0.0,87,0.00,,CLR,0.18,VWS V14.01,2013-11-03 03:11:00,
2013-11-02 23:12:00,63.5,59.6,29.93,North,354,0.0,0.0,87,0.00,,CLR,0.18,VWS V14.01,2013-11-03 03:12:00,
2013-11-02 23:13:00,63.5,59.6,29.93,North,354,0.0,0.0,87,0.00,,CLR,0.18,VWS V14.01,2013-11-03 03:13:00,
2013-11-02 23:14:00,63.5,59.6,29.93,North,354,0.0,0.0,87,0.00,,CLR,0.18,VWS V14.01,2013-11-03 03:14:00,
2013-11-02 23:15:00,63.5,59.6,29.93,North,354,0.0,0.0,87,0.00,,CLR,0.18,VWS V14.01,2013-11-03 03:15:00,
2013-11-02 23:16:00,63.5,59.6,29.93,North,354,0.0,0.0,87,0.00,,CLR,0.18,VWS V14.01,2013-11-03 03:16:00,
2013-11-02 23:17:00,63.5,59.6,29.93,North,354,0.0,0.0,87,0.00,,CLR,0.18,VWS V14.01,2013-11-03 03:17:00,
2013-11-02 23:18:00,63.5,59.6,29.93,North,354,0.0,0.0,87,0.00,,CLR,0.18,VWS V14.01,2013-11-03 03:18:00,
2013-11-02 23:19:00,63.5,59.6,29.93,North,354,0.0,0.0,87,0.00,,CLR,0.18,VWS V14.01,2013-11-03 03:19:00,
2013-11-02 23:20:00,63.5,59.6,29.93,North,354,0.0,0.0,87,0.00,,CLR,0.18,VWS V14.01,2013-11-03 03:20:00,
2013-11-02 23:21:00,63.4,59.5,29.93,North,354,0.0,0.0,87,0.00,,CLR,0.18,VWS V14.01,2013-11-03 03:21:00,
2013-11-02 23:22:00,63.4,59.5,29.93,North,354,0.0,0.0,87,0.00,,CLR,0.18,VWS V14.01,2013-11-03 03:22:00,
2013-11-02 23:23:00,63.4,59.5,29.93,North,354,0.0,0.0,87,0.00,,CLR,0.18,VWS V14.01,2013-11-03 03:23:00,
2013-11-02 23:24:00,63.4,59.5,29.93,North,354,0.0,0.0,87,0.00,,CLR,0.18,VWS V14.01,2013-11-03 03:24:00,
2013-11-02 23:25:00,63.4,59.5,29.93,North,354,0.0,0.0,87,0.00,,CLR,0.18,VWS V14.01,2013-11-03 03:25:00,
2013-11-02 23:26:00,63.4,59.5,29.93,North,354,0.0,0.0,87,0.00,,CLR,0.18,VWS V14.01,2013-11-03 03:26:00,
2013-11-02 23:27:00,63.4,59.5,29.93,North,354,0.0,0.0,87,0.00,,CLR,0.18,VWS V14.01,2013-11-03 03:27:00,
2013-11-02 23:28:00,63.4,59.5,29.93,North,354,0.0,0.0,87,0.00,,CLR,0.18,VWS V14.01,2013-11-03 03:28:00,
2013-11-02 23:29:00,63.4,59.5,29.93,North,354,0.0,0.0,87,0.00,,CLR,0.18,VWS V14.01,2013-11-03 03:29:00,
2013-11-02 23:30:00,63.4,59.5,29.93,North,354,0.0,0.0,87,0.00,,CLR,0.18,VWS V14.01,2013-11-03 03:30:00,
2013-11-02 23:31:00,63.4,59.5,29.93,North,354,0.0,0.0,87,0.00,,CLR,0.18,VWS V14.01,2013-11-03 03:31:00,
2013-11-02 23:32:00,63.4,59.5,29.93,North,354,0.0,0.0,87,0.00,,CLR,0.18,VWS V14.01,2013-11-03 03:32:00,
2013-11-02 23:33:00,63.4,59.5,29.93,North,354,0.0,0.0,87,0.00,,CLR,0.18,VWS V14.01,2013-11-03 03:33:00,
2013-11-02 23:34:00,63.4,59.5,29.93,North,354,0.0,0.0,87,0.00,,CLR,0.18,VWS V14.01,2013-11-03 03:34:00,
2013-11-02 23:35:00,63.4,59.5,29.93,North,354,0.0,0.0,87,0.00,,CLR,0.18,VWS V14.01,2013-11-03 03:35:00,
2013-11-02 23:36:00,63.4,59.5,29.93,North,354,0.0,0.0,87,0.00,,CLR,0.18,VWS V14.01,2013-11-03 03:36:00,
2013-11-02 23:37:00,63.4,59.5,29.93,North,354,0.0,0.0,87,0.00,,CLR,0.18,VWS V14.01,2013-11-03 03:37:00,
2013-11-02 23:38:00,63.4,59.5,29.93,North,354,0.0,0.0,87,0.00,,CLR,0.18,VWS V14.01,2013-11-03 03:38:00,
2013-11-02 23:39:00,63.4,59.5,29.93,North,354,0.0,0.0,87,0.00,,CLR,0.18,VWS V14.01,2013-11-03 03:39:00,
2013-11-02 23:40:00,63.4,59.5,29.93,North,354,0.0,0.0,87,0.00,,CLR,0.18,VWS V14.01,2013-11-03 03:40:00,
2013-11-02 23:41:00,63.4,59.5,29.93,North,354,0.0,0.0,87,0.00,,CLR,0.18,VWS V14.01,2013-11-03 03:41:00,
2013-11-02 23:42:00,63.4,59.5,29.93,North,354,0.0,0.0,87,0.00,,CLR,0.18,VWS V14.01,2013-11-03 03:42:00,
2013-11-02 23:43:00,63.4,59.5,29.93,North,354,0.0,0.0,87,0.00,,CLR,0.18,VWS V14.01,2013-11-03 03:43:00,
2013-11-02 23:44:00,63.4,59.5,29.93,North,354,0.0,0.0,87,0.00,,CLR,0.18,VWS V14.01,2013-11-03 03:44:00,
2013-11-02 23:45:00,63.4,59.5,29.93,North,354,0.0,0.0,87,0.00,,CLR,0.18,VWS V14.01,2013-11-03 03:45:00,
2013-11-02 23:46:00,63.4,59.5,29.93,North,354,0.0,0.0,87,0.00,,CLR,0.18,VWS V14.01,2013-11-03 03:46:00,
2013-11-02 23:47:00,63.4,59.5,29.93,North,354,0.0,0.0,87,0.00,,CLR,0.18,VWS V14.01,2013-11-03 03:47:00,
2013-11-02 23:48:00,63.4,59.5,29.93,North,354,0.0,0.0,87,0.00,,CLR,0.18,VWS V14.01,2013-11-03 03:48:00,
2013-11-02 23:49:00,63.4,59.5,29.93,North,354,0.0,0.0,87,0.00,,CLR,0.18,VWS V14.01,2013-11-03 03:49:00,
2013-11-02 23:50:00,63.4,59.5,29.93,North,354,0.0,0.0,87,0.00,,CLR,0.18,VWS V14.01,2013-11-03 03:50:00,
2013-11-02 23:51:00,63.4,59.5,29.93,North,354,0.0,0.0,87,0.00,,CLR,0.18,VWS V14.01,2013-11-03 03:51:00,
2013-11-02 23:52:00,63.4,59.5,29.93,North,354,0.0,0.0,87,0.00,,CLR,0.18,VWS V14.01,2013-11-03 03:52:00,
2013-11-02 23:53:00,63.4,59.5,29.93,North,354,0.0,0.0,87,0.00,,CLR,0.18,VWS V14.01,2013-11-03 03:53:00,
2013-11-02 23:54:00,63.4,59.5,29.93,North,354,0.0,0.0,87,0.00,,CLR,0.18,VWS V14.01,2013-11-03 03:54:00,
2013-11-02 23:55:00,63.4,59.5,29.93,North,354,0.0,0.0,87,0.00,,CLR,0.18,VWS V14.01,2013-11-03 03:55:00,
2013-11-02 23:56:00,63.4,59.5,29.93,North,354,0.0,0.0,87,0.00,,CLR,0.18,VWS V14.01,2013-11-03 03:56:00,
2013-11-02 23:57:00,63.4,59.5,29.93,North,354,0.0,0.0,87,0.00,,CLR,0.18,VWS V14.01,2013-11-03 03:57:00,
2013-11-02 23:58:00,63.4,59.5,29.93,North,354,0.0,0.0,87,0.00,,CLR,0.18,VWS V14.01,2013-11-03 03:58:00,
2013-11-02 23:59:00,63.4,59.5,29.93,North,354,0.0,0.0,87,0.00,,CLR,0.18,VWS V14.01,2013-11-03 03:59:00,